Latitude: N 50° 09' 49" Longitude: W 05° 11' 53" Elevation: 168m ASL

There are 3 visitors online

Adverts

<- Previous Day | Today | Next Day ->

All Data for 15 April 2019

Time
A - D
Temp
A - D
Dew Point
A - D
Humidity
A - D
Pressure
A - D
Wind
A - D
Wind Dir Gust
A - D
Rain Rate
A - D
Rain Total
00:00 6.8 3.8 81 1017.0 7.6 NW 13.6 0.8 0.0
00:01 6.8 3.8 81 1017.2 7.6 NW 9.8 0.8 0.0
00:02 6.8 3.8 81 1017.1 8.3 SE 9.8 0.8 0.0
00:03 6.8 3.8 81 1017.1 7.6 NW 9.8 0.0 0.0
00:04 6.8 3.8 81 1017.2 9.2 NE 9.8 0.0 0.0
00:05 6.8 3.8 81 1017.1 8.3 NE 9.2 0.0 0.0
00:06 6.8 3.8 81 1017.2 9.2 E 9.2 0.0 0.0
00:07 6.8 3.8 81 1017.1 7.6 S 9.2 0.0 0.0
00:08 6.9 3.9 81 1017.0 6.0 ENE 9.2 0.0 0.0
00:09 6.9 3.9 81 1017.1 6.9 SE 9.2 0.0 0.0
00:10 6.9 3.9 81 1017.2 3.1 NE 9.2 0.0 0.0
00:11 6.9 3.9 81 1017.2 3.8 ESE 9.2 0.0 0.0
00:12 6.9 3.9 81 1017.2 5.4 N 9.2 0.0 0.0
00:14 6.9 3.9 81 1017.1 7.6 NNW 9.8 0.0 0.0
00:15 6.9 3.9 81 1017.0 9.8 NW 9.8 0.0 0.0
00:16 6.9 3.9 81 1017.0 10.7 NE 10.7 0.0 0.0
00:17 6.9 3.9 81 1017.0 6.0 SE 10.7 0.0 0.0
00:18 6.9 3.9 81 1016.9 5.4 NW 10.7 0.0 0.0
00:19 6.9 3.9 81 1016.7 7.6 NNW 10.7 0.0 0.0
00:20 6.9 3.9 81 1016.8 9.2 S 10.7 0.0 0.0
00:21 6.9 3.9 81 1016.8 7.6 NE 10.7 0.0 0.0
00:22 6.8 3.8 81 1017.0 9.2 E 10.7 0.0 0.0
00:23 6.8 3.8 81 1017.0 8.3 W 10.7 0.0 0.0
00:24 6.8 3.8 81 1016.9 6.9 N 10.7 0.0 0.0
00:25 6.8 3.8 81 1016.9 7.6 WNW 10.7 0.0 0.0
00:26 6.8 3.8 81 1016.9 10.7 WNW 10.7 0.0 0.0
00:27 6.8 3.8 81 1017.0 5.4 S 10.7 0.0 0.0
00:28 6.8 3.8 81 1017.2 6.9 SE 10.7 0.0 0.0
00:29 6.8 3.8 81 1016.9 14.5 SW 14.5 0.0 0.0
00:31 6.8 3.8 81 1016.9 9.2 NW 14.5 0.0 0.0
00:32 6.8 3.8 81 1017.0 6.9 N 14.5 0.0 0.0
00:33 6.8 3.8 81 1017.1 3.8 N 14.5 0.0 0.0
00:34 6.8 3.8 81 1017.1 7.6 SE 14.5 0.0 0.0
00:35 6.8 3.8 81 1016.9 8.3 S 14.5 0.0 0.0
00:36 6.8 3.8 81 1017.0 7.6 S 14.5 0.0 0.0
00:37 6.8 3.8 81 1016.9 8.3 SW 14.5 0.0 0.0
00:38 6.8 3.9 82 1016.9 9.8 SE 14.5 0.0 0.0
00:39 6.8 3.9 82 1016.9 6.0 NE 14.5 0.0 0.0
00:40 6.8 3.9 82 1017.0 4.5 ENE 9.8 0.0 0.0
00:41 6.8 3.9 82 1017.0 7.6 E 9.8 0.0 0.0
00:42 6.8 3.9 82 1016.8 6.9 N 9.8 0.0 0.0
00:43 6.8 3.9 82 1017.0 6.0 N 9.8 0.0 0.0
00:44 6.8 3.9 82 1017.0 4.5 NE 9.8 0.0 0.0
00:45 6.8 3.9 82 1016.8 9.2 W 11.4 0.0 0.0
00:46 6.8 3.9 82 1016.8 9.8 N 11.4 0.0 0.0
00:47 6.8 3.9 82 1016.9 7.6 SE 11.4 0.0 0.0
00:48 6.8 3.9 82 1016.9 4.5 S 11.4 0.0 0.0
00:49 6.8 3.9 82 1016.9 4.5 S 11.4 0.0 0.0
00:51 6.8 3.9 82 1016.9 7.6 E 11.4 0.0 0.0
00:52 6.8 3.9 82 1017.0 7.6 N 11.4 0.0 0.0
00:53 6.8 3.9 82 1016.8 6.9 NW 11.4 0.0 0.0
00:54 6.8 3.9 82 1016.8 8.3 E 11.4 0.0 0.0
00:55 6.8 3.9 82 1016.9 9.8 N 10.7 0.0 0.0
00:56 6.8 3.9 82 1016.8 7.6 N 10.7 0.0 0.0
00:57 6.8 3.9 82 1016.8 6.9 W 10.7 0.0 0.0
00:58 6.8 3.9 82 1016.6 9.8 NE 10.7 0.0 0.0
00:59 6.8 3.9 82 1016.5 5.4 N 10.7 0.0 0.0
01:00 6.8 3.9 82 1016.6 4.5 SE 9.8 0.0 0.0
01:01 6.8 3.9 82 1016.6 4.5 SE 9.8 0.0 0.0
01:02 6.9 4.0 82 1016.8 6.9 N 9.8 0.0 0.0
01:03 6.9 4.0 82 1016.6 8.3 SE 9.8 0.0 0.0
01:04 6.9 4.0 82 1016.6 8.3 SE 9.8 0.0 0.0
01:05 6.9 4.0 82 1016.7 8.3 NE 9.8 0.0 0.0
01:06 6.9 4.0 82 1016.7 4.5 NW 9.8 0.0 0.0
01:07 6.9 4.0 82 1016.6 7.6 NW 9.8 0.0 0.0
01:08 6.9 4.0 82 1016.7 5.4 NW 9.8 0.0 0.0
01:09 6.9 4.0 82 1016.6 9.2 S 13.6 0.0 0.0
01:10 7.0 4.1 82 1016.7 8.3 SE 13.6 0.0 0.0
01:11 7.0 4.1 82 1016.7 6.0 SE 13.6 0.0 0.0
01:13 7.0 4.1 82 1016.5 5.4 NW 13.6 0.0 0.0
01:14 7.0 4.1 82 1016.5 7.6 SW 13.6 0.0 0.0
01:15 7.0 4.1 82 1016.5 10.7 E 13.6 0.0 0.0
01:16 7.0 4.1 82 1016.4 11.4 NNE 13.6 0.0 0.0
01:17 7.0 4.1 82 1016.5 6.0 NW 13.6 0.0 0.0
01:18 7.0 4.1 82 1016.4 8.3 NE 13.6 0.0 0.0
01:19 7.0 4.1 82 1016.5 7.6 NE 11.4 0.0 0.0
01:20 7.0 4.1 82 1016.4 6.9 SW 11.4 0.0 0.0
01:21 7.0 4.1 82 1016.5 4.5 SW 11.4 0.0 0.0
01:22 7.0 4.0 81 1016.5 12.1 NW 12.1 0.0 0.0
01:23 7.0 4.1 82 1016.5 8.3 E 12.1 0.0 0.0
01:24 7.0 4.0 81 1016.5 8.3 NE 12.1 0.0 0.0
01:25 7.0 4.1 82 1016.5 8.3 NE 12.1 0.0 0.0
01:26 7.0 4.0 81 1016.6 9.8 SW 12.1 0.0 0.0
01:27 7.0 4.0 81 1016.6 6.9 NW 12.1 0.0 0.0
01:28 7.0 4.0 81 1016.5 6.9 E 12.1 0.0 0.0
01:29 7.0 4.0 81 1016.5 5.4 S 12.1 0.0 0.0
01:30 7.0 4.0 81 1016.5 8.3 NNE 12.1 0.0 0.0
01:31 7.0 4.0 81 1016.6 8.3 NE 12.1 0.0 0.0
01:32 7.0 4.0 81 1016.6 8.3 NW 10.7 0.0 0.0
01:33 7.0 4.0 81 1016.6 6.0 N 10.7 0.0 0.0
01:34 7.0 4.0 81 1016.5 8.3 SW 10.7 0.0 0.0
01:35 7.0 4.0 81 1016.4 10.7 NW 10.7 0.0 0.0
01:36 7.0 4.0 81 1016.6 4.5 N 10.7 0.0 0.0
01:37 7.0 4.0 81 1016.3 7.6 NW 10.7 0.0 0.0
01:38 7.0 4.0 81 1016.6 9.8 NE 10.7 0.0 0.0
01:39 7.0 4.0 81 1016.4 9.2 NW 10.7 0.0 0.0
01:40 7.0 4.0 81 1016.4 6.9 SE 10.7 0.0 0.0
01:41 7.1 4.1 81 1016.4 7.6 N 10.7 0.0 0.0
01:42 7.1 4.1 81 1016.4 7.6 N 10.7 0.0 0.0
01:43 7.1 4.1 81 1016.4 6.0 N 10.7 0.0 0.0
01:44 7.1 4.1 81 1016.4 6.9 E 10.7 0.0 0.0
01:45 7.1 4.1 81 1016.4 7.6 NW 10.7 0.0 0.0
01:46 7.1 4.1 81 1016.4 6.9 E 9.8 0.0 0.0
01:47 7.1 4.1 81 1016.3 9.2 NW 9.8 0.0 0.0
01:48 7.1 4.1 81 1016.4 11.4 SW 11.4 0.0 0.0
01:49 7.1 4.1 81 1016.2 10.7 E 11.4 0.0 0.0
01:51 7.1 4.1 81 1016.3 6.9 W 15.2 0.0 0.0
01:52 7.1 4.1 81 1016.4 6.0 E 15.2 0.0 0.0
01:53 7.1 4.1 81 1016.3 9.2 SE 15.2 0.8 0.1
01:54 7.1 4.1 81 1016.4 8.3 NE 15.2 0.8 0.1
01:55 7.1 4.1 81 1016.2 6.9 E 15.2 0.8 0.1
01:56 7.1 4.1 81 1016.2 6.9 NW 15.2 0.8 0.1
01:57 7.1 4.1 81 1016.2 7.6 NW 15.2 0.8 0.1
01:58 7.1 4.1 81 1016.3 5.4 NW 15.2 0.0 0.1
01:59 7.1 4.1 81 1016.2 6.9 SW 15.2 0.0 0.1
02:00 7.1 4.1 81 1016.2 6.9 SW 15.2 0.0 0.1
02:01 7.1 4.1 81 1016.1 6.0 SW 9.2 0.0 0.1
02:02 7.0 4.0 81 1016.1 6.9 E 9.2 0.0 0.1
02:03 7.0 4.0 81 1016.2 8.3 E 9.2 0.0 0.1
02:04 7.0 4.0 81 1016.3 8.3 W 9.2 0.0 0.1
02:05 7.0 4.0 81 1016.3 7.6 S 8.3 0.0 0.1
02:06 7.0 4.0 81 1016.2 7.6 SE 8.3 0.0 0.1
02:07 7.0 4.0 81 1016.2 7.6 S 8.3 0.0 0.1
02:08 7.0 4.0 81 1016.2 7.6 N 9.2 0.0 0.1
02:09 7.0 4.1 82 1016.3 7.6 N 9.2 0.0 0.1
02:10 7.0 4.0 81 1016.1 7.6 S 9.2 0.0 0.1
02:11 7.0 4.0 81 1016.1 6.0 NE 9.2 0.0 0.1
02:12 7.0 4.0 81 1016.0 7.6 NE 9.2 0.0 0.1
02:13 7.0 4.0 81 1016.2 6.0 NW 9.2 0.0 0.1
02:14 7.0 4.0 81 1016.1 9.2 SE 9.2 0.0 0.1
02:15 7.0 4.0 81 1016.1 9.2 SW 9.2 0.0 0.1
02:16 7.0 4.0 81 1016.0 6.9 NW 9.2 0.0 0.1
02:17 7.1 4.2 82 1015.9 14.5 SW 14.5 0.0 0.1
02:18 7.1 4.1 81 1016.0 5.4 E 14.5 0.0 0.1
02:19 7.1 4.2 82 1015.9 5.4 SW 14.5 0.0 0.1
02:20 7.1 4.2 82 1015.8 5.4 NE 14.5 0.0 0.1
02:21 7.1 4.2 82 1015.8 6.9 SW 14.5 0.0 0.1
02:22 7.1 4.1 81 1015.8 9.8 S 14.5 0.0 0.1
02:23 7.1 4.2 82 1015.8 13.0 N 14.5 0.0 0.1
02:24 7.1 4.1 81 1015.8 16.8 SW 16.8 0.0 0.1
02:25 7.1 4.1 81 1015.8 14.5 NW 16.8 0.0 0.1
02:26 7.1 4.1 81 1015.8 6.9 SE 16.8 0.0 0.1
02:27 7.1 3.9 80 1015.8 9.8 E 16.8 0.0 0.1
02:28 7.1 3.9 80 1015.8 9.2 NE 16.8 0.0 0.1
02:29 7.1 3.9 80 1015.8 14.5 SW 16.8 0.0 0.1
02:30 7.1 3.9 80 1015.7 10.7 NW 16.8 0.0 0.1
02:31 7.0 3.6 79 1015.8 15.2 N 16.8 0.0 0.1
02:32 7.0 3.6 79 1015.7 11.4 E 16.8 0.0 0.1
02:33 7.1 3.7 79 1015.9 8.3 S 16.8 0.0 0.1
02:34 7.0 3.6 79 1015.8 11.4 SE 15.2 0.0 0.1
02:35 7.0 3.6 79 1015.9 19.0 SE 19.0 0.0 0.1
02:36 7.0 3.6 79 1015.9 19.0 SE 19.0 0.0 0.1
02:37 7.0 3.6 79 1015.8 23.5 SW 23.5 0.0 0.1
02:38 7.0 3.4 78 1015.9 19.7 SSE 23.5 0.0 0.1
02:39 7.0 3.4 78 1015.8 9.2 NNW 23.5 0.0 0.1
02:40 7.0 3.4 78 1015.8 10.7 S 23.5 0.0 0.1
02:41 7.0 3.4 78 1015.8 15.9 W 23.5 0.0 0.1
02:42 6.9 3.3 78 1015.9 12.1 S 23.5 0.0 0.1
02:43 6.9 3.3 78 1015.7 12.1 SSW 23.5 0.0 0.1
02:44 6.9 3.3 78 1015.8 14.5 NE 23.5 0.0 0.1
02:45 6.9 3.3 78 1015.8 12.1 N 23.5 0.0 0.1
02:46 6.8 3.2 78 1015.7 6.9 N 23.5 0.0 0.1
02:47 6.8 3.2 78 1015.7 8.3 NW 19.7 0.0 0.1
02:48 6.8 3.1 77 1015.6 6.0 NW 15.9 0.0 0.1
02:49 6.8 3.2 78 1015.5 11.4 SW 15.9 0.0 0.1
02:50 6.8 3.1 77 1015.6 6.0 SSW 15.9 0.0 0.1
02:51 6.8 3.1 77 1015.6 8.3 S 14.5 0.0 0.1
02:52 6.8 3.1 77 1015.7 10.7 NW 14.5 0.0 0.1
02:53 6.8 3.1 77 1015.5 6.9 S 14.5 0.0 0.1
02:54 6.8 3.1 77 1015.5 9.2 E 12.1 0.0 0.1
02:55 6.8 3.1 77 1015.7 7.6 SE 12.1 0.0 0.1
02:56 6.8 3.1 77 1015.5 6.0 SW 11.4 0.0 0.1
02:57 6.8 3.1 77 1015.6 6.9 WNW 11.4 0.0 0.1
02:58 6.8 3.1 77 1015.5 5.4 NW 11.4 0.0 0.1
02:59 6.8 3.1 77 1015.5 8.3 NE 11.4 0.0 0.1
03:00 6.8 3.1 77 1015.5 9.2 NE 10.7 0.0 0.1
03:01 6.8 3.1 77 1015.3 6.9 E 10.7 0.0 0.1
03:02 6.8 3.1 77 1015.3 6.9 E 10.7 0.0 0.1
03:03 6.8 3.1 77 1015.3 6.9 E 9.2 0.0 0.1
03:04 6.8 3.1 77 1015.4 6.9 E 9.2 0.0 0.1
03:05 6.8 3.1 77 1015.4 6.9 E 9.2 0.0 0.1
03:06 6.8 3.1 77 1015.4 7.6 NW 9.2 0.0 0.1
03:07 6.8 3.1 77 1015.4 9.8 NW 9.8 0.0 0.1
03:08 6.8 3.1 77 1015.4 7.6 WSW 9.8 0.0 0.1
03:09 6.8 3.1 77 1015.3 9.8 S 9.8 0.0 0.1
03:10 6.8 3.1 77 1015.4 9.2 N 9.8 0.0 0.1
03:11 6.8 3.1 77 1015.3 7.6 E 9.8 0.0 0.1
03:12 6.9 3.2 77 1015.3 9.8 WNW 9.8 0.0 0.1
03:13 6.8 3.1 77 1015.3 7.6 N 9.8 0.0 0.1
03:14 6.8 3.1 77 1015.2 7.6 NE 9.8 0.0 0.1
03:15 6.8 3.1 77 1015.2 8.3 S 9.8 0.0 0.1
03:16 6.8 3.1 77 1015.2 6.9 SW 9.8 0.0 0.1
03:17 6.8 3.1 77 1015.2 10.7 WNW 12.1 0.0 0.1
03:18 6.8 3.1 77 1015.2 6.9 E 12.1 0.0 0.1
03:19 6.8 3.1 77 1015.2 6.9 E 12.1 0.0 0.1
03:20 6.8 3.1 77 1015.2 6.9 SE 12.1 0.0 0.1
03:21 6.8 3.1 77 1015.3 6.0 NE 12.1 0.0 0.1
03:22 6.9 3.2 77 1015.4 6.0 N 12.1 0.0 0.1
03:23 6.8 3.1 77 1015.4 17.4 SE 17.4 0.0 0.1
03:24 6.8 3.2 78 1015.5 23.5 SE 23.5 0.0 0.1
03:25 6.8 3.2 78 1015.5 15.9 N 23.5 0.0 0.1
03:26 6.9 3.2 77 1015.4 19.7 E 23.5 0.0 0.1
03:27 6.9 3.3 78 1015.3 10.7 E 23.5 0.0 0.1
03:28 6.8 3.2 78 1015.3 12.1 SE 23.5 0.0 0.1
03:29 6.8 3.2 78 1015.3 12.1 E 23.5 0.0 0.1
03:30 6.8 3.2 78 1015.3 13.0 E 23.5 0.0 0.1
03:31 6.8 3.2 78 1015.2 8.3 SW 23.5 0.0 0.1
03:32 6.8 3.2 78 1015.2 9.8 NE 23.5 0.0 0.1
03:33 6.8 3.2 78 1015.2 13.0 SW 23.5 0.0 0.1
03:34 6.8 3.2 78 1015.1 13.6 E 23.5 0.8 0.1
03:35 6.8 3.2 78 1015.2 16.8 SE 19.7 0.8 0.1
03:36 6.8 3.2 78 1015.1 17.4 SE 19.7 0.8 0.1
03:37 6.7 3.1 78 1015.0 13.0 S 19.0 0.8 0.1
03:38 6.7 3.1 78 1015.2 7.6 E 19.0 0.8 0.1
03:39 6.7 3.1 78 1015.1 13.0 S 19.0 0.0 0.1
03:40 6.7 3.1 78 1015.2 19.0 S 19.0 0.0 0.1
03:41 6.7 3.1 78 1015.2 9.2 SE 19.0 0.0 0.1
03:42 6.7 3.1 78 1015.1 6.9 E 19.0 0.0 0.1
03:43 6.7 3.1 78 1015.2 9.8 E 19.0 0.0 0.1
03:44 6.6 3.0 78 1015.2 9.2 NW 19.0 0.0 0.1
03:45 6.6 3.2 79 1014.9 11.4 NW 19.0 0.0 0.1
03:46 6.6 3.2 79 1015.0 6.0 SE 19.0 0.0 0.1
03:47 6.6 3.2 79 1015.1 15.9 SE 19.0 0.0 0.1
03:48 6.6 3.2 79 1015.1 9.8 SW 19.0 0.0 0.1
03:49 6.6 3.2 79 1015.0 10.7 SE 19.0 0.0 0.1
03:50 6.6 3.2 79 1015.1 14.5 WSW 15.9 0.0 0.1
03:51 6.6 3.2 79 1015.1 14.5 WSW 15.9 0.0 0.1
03:52 6.6 3.2 79 1015.0 17.4 WSW 17.4 0.0 0.1
03:53 6.7 3.3 79 1014.7 7.6 NW 17.4 0.0 0.1
03:54 6.7 3.3 79 1015.0 8.3 NW 17.4 0.0 0.1
03:55 6.7 3.3 79 1014.9 7.6 NE 17.4 0.0 0.1
03:56 6.7 3.3 79 1014.9 13.0 SE 17.4 0.0 0.1
03:57 6.7 3.3 79 1014.9 9.8 NE 17.4 0.0 0.1
03:58 6.7 3.3 79 1014.7 11.4 E 17.4 0.0 0.1
03:59 6.7 3.3 79 1014.8 6.9 NE 17.4 0.0 0.1
04:00 6.8 3.4 79 1014.6 17.4 NE 17.4 0.0 0.1
04:01 6.8 3.4 79 1014.5 11.4 N 17.4 0.0 0.1
04:02 6.8 3.4 79 1014.7 12.1 NE 17.4 0.0 0.1
04:03 6.8 3.4 79 1014.6 20.6 NE 20.6 0.0 0.1
04:04 6.8 3.4 79 1014.5 6.9 W 20.6 0.0 0.1
04:05 6.8 3.4 79 1014.6 8.3 NW 20.6 0.0 0.1
04:06 6.8 3.2 78 1014.5 9.2 SE 20.6 0.0 0.1
04:07 6.8 3.2 78 1014.5 10.7 N 20.6 0.0 0.1
04:08 6.8 3.2 78 1014.4 8.3 E 20.6 0.0 0.1
04:09 6.8 3.2 78 1014.3 7.6 NW 20.6 0.0 0.1
04:10 6.8 3.2 78 1014.3 9.2 E 20.6 0.0 0.1
04:11 6.8 3.2 78 1014.2 6.9 SE 20.6 0.0 0.1
04:12 6.8 3.2 78 1014.4 6.9 SE 20.6 0.0 0.1
04:13 6.9 3.3 78 1014.4 8.3 NE 20.6 0.0 0.1
04:14 6.9 3.2 77 1014.5 9.8 NW 11.4 0.0 0.1
04:15 6.9 3.3 78 1014.3 8.3 NE 11.4 0.0 0.1
04:16 6.9 3.2 77 1014.4 6.9 SE 10.7 0.0 0.1
04:17 6.9 3.3 78 1014.5 13.0 N 13.0 0.0 0.1
04:18 6.9 3.2 77 1014.5 11.4 SE 13.0 0.0 0.1
04:19 6.9 3.2 77 1014.5 17.4 N 17.4 0.0 0.1
04:20 7.0 3.2 77 1014.7 10.7 NNE 17.4 0.0 0.1
04:21 7.0 3.2 77 1014.7 12.1 S 17.4 0.0 0.1
04:22 7.0 3.2 77 1014.8 5.4 W 17.4 0.0 0.1
04:23 7.0 3.2 77 1014.7 6.9 NNE 17.4 0.0 0.1
04:24 7.1 3.3 77 1014.8 9.2 E 17.4 0.0 0.1
04:25 7.1 3.3 77 1014.8 6.9 NE 17.4 0.0 0.1
04:26 7.1 3.3 77 1014.8 10.7 E 17.4 0.0 0.1
04:27 7.1 3.3 77 1014.8 8.3 SW 17.4 0.0 0.1
04:28 7.1 3.3 77 1014.8 8.3 SW 17.4 0.0 0.1
04:29 7.2 3.4 77 1014.8 10.7 N 17.4 0.0 0.1
04:30 7.2 3.4 77 1014.7 11.4 SSW 15.2 0.0 0.1
04:31 7.2 3.4 77 1014.7 15.9 SW 15.9 0.0 0.1
04:32 7.2 3.4 77 1014.9 18.3 SE 18.3 0.0 0.1
04:33 7.2 3.4 77 1014.8 13.6 NW 18.3 0.0 0.1
04:34 7.2 3.4 77 1014.7 16.8 E 18.3 0.0 0.1
04:35 7.2 3.3 76 1014.7 18.3 S 18.3 0.0 0.1
04:36 7.2 3.4 77 1014.7 13.6 WNW 18.3 0.0 0.1
04:37 7.2 3.3 76 1014.8 15.2 ENE 18.3 0.0 0.1
04:38 7.2 3.4 77 1014.9 9.8 NE 18.3 0.0 0.1
04:39 7.2 3.4 77 1014.7 15.2 NE 18.3 0.0 0.1
04:40 7.1 3.3 77 1014.7 9.8 NW 18.3 0.0 0.1
04:41 7.1 3.3 77 1014.9 14.5 SE 18.3 0.0 0.1
04:42 7.1 3.3 77 1014.5 9.8 SW 18.3 0.0 0.1
04:43 7.0 3.2 77 1014.5 9.2 E 18.3 0.0 0.1
04:44 7.0 3.2 77 1014.5 15.2 WSW 18.3 0.0 0.2
04:45 7.0 3.2 77 1014.6 12.1 NE 15.2 0.8 0.2
04:46 6.9 3.2 77 1014.6 9.8 E 15.2 0.8 0.2
04:47 6.9 3.2 77 1014.6 9.2 N 15.2 0.8 0.2
04:48 6.9 3.2 77 1014.4 9.8 ENE 15.2 0.8 0.2
04:49 6.8 3.2 78 1014.6 8.3 W 15.2 0.8 0.2
04:50 6.8 3.2 78 1014.3 6.0 E 15.2 0.0 0.2
04:51 6.8 3.2 78 1014.4 7.6 N 15.2 0.0 0.2
04:52 6.8 3.2 78 1014.2 7.6 NW 15.2 0.0 0.2
04:53 6.7 3.1 78 1014.2 7.6 SW 15.2 0.0 0.2
04:54 6.7 3.1 78 1014.2 5.4 SE 15.2 0.0 0.2
04:56 6.7 3.3 79 1014.4 6.0 SW 12.1 0.0 0.2
04:57 6.7 3.3 79 1014.3 4.5 E 12.1 0.0 0.2
04:58 6.6 3.2 79 1014.4 6.9 SE 12.1 0.0 0.2
04:59 6.6 3.2 79 1014.3 7.6 E 9.8 0.0 0.2
05:00 6.6 3.2 79 1014.4 8.3 W 9.8 0.0 0.2
05:01 6.6 3.2 79 1014.2 8.3 W 9.8 0.0 0.2
05:02 6.6 3.2 79 1014.2 8.3 W 9.8 0.0 0.2
05:03 6.6 3.2 79 1014.2 8.3 W 9.8 0.0 0.2
05:04 6.6 3.2 79 1014.3 8.3 W 9.8 0.0 0.2
05:05 6.6 3.2 79 1014.4 8.3 W 8.3 0.0 0.2
05:06 6.6 3.4 80 1014.4 13.0 N 13.0 0.0 0.2
05:07 6.6 3.4 80 1014.4 9.2 SE 13.0 0.0 0.2
05:08 6.6 3.4 80 1014.4 7.6 NW 13.0 0.0 0.2
05:09 6.7 3.5 80 1014.3 6.0 S 13.0 0.0 0.2
05:10 6.7 3.5 80 1014.5 6.0 NW 13.0 0.0 0.2
05:11 6.7 3.5 80 1014.5 8.3 NE 13.0 0.0 0.2
05:12 6.7 3.5 80 1014.5 11.4 NW 13.0 0.0 0.2
05:13 6.7 3.5 80 1014.5 6.0 NE 13.0 0.0 0.2
05:14 6.7 3.5 80 1014.5 15.9 N 15.9 0.0 0.2
05:15 6.7 3.5 80 1014.3 9.8 WSW 15.9 0.0 0.2
05:17 6.7 3.5 80 1014.4 6.0 N 15.9 0.0 0.2
05:18 6.8 3.6 80 1014.3 6.9 W 15.9 0.0 0.2
05:19 6.8 3.6 80 1014.2 3.8 E 15.9 0.0 0.2
05:20 6.8 3.6 80 1014.1 3.8 N 15.9 0.0 0.2
05:21 6.8 3.6 80 1014.2 5.4 NW 15.9 0.0 0.2
05:22 6.8 3.6 80 1014.2 6.0 W 15.9 0.0 0.2
05:23 6.8 3.6 80 1014.0 5.4 W 15.9 0.0 0.2
05:24 6.8 3.6 80 1014.1 3.8 W 10.7 0.0 0.2
05:25 6.8 3.6 80 1014.0 5.4 NW 10.7 0.0 0.2
05:26 6.8 3.6 80 1014.0 3.8 NW 10.7 0.0 0.2
05:27 6.9 3.7 80 1014.0 3.8 S 10.7 0.0 0.2
05:28 6.9 3.7 80 1014.0 7.6 WNW 10.7 0.0 0.2
05:29 6.9 3.7 80 1014.0 9.2 N 9.2 0.0 0.2
05:30 6.9 3.7 80 1013.9 4.5 NW 9.2 0.0 0.2
05:31 6.9 3.7 80 1014.0 6.0 WNW 9.2 0.0 0.2
05:32 6.9 3.7 80 1013.9 4.5 NE 9.2 0.0 0.2
05:33 6.9 3.7 80 1013.9 8.3 E 9.2 0.0 0.2
05:34 7.0 3.8 80 1013.9 9.2 N 9.2 0.8 0.3
05:36 7.0 3.8 80 1013.9 9.2 NW 9.2 0.8 0.3
05:37 7.0 3.8 80 1013.9 6.0 N 9.2 0.8 0.3
05:38 7.0 3.8 80 1013.7 6.9 SE 9.2 0.8 0.3
05:39 7.0 3.8 80 1013.7 6.0 NW 9.2 0.0 0.3
05:40 7.0 3.8 80 1013.5 10.7 NE 10.7 0.0 0.3
05:41 7.0 3.8 80 1013.6 7.6 NW 10.7 0.0 0.3
05:42 7.1 3.9 80 1013.5 6.9 S 10.7 0.0 0.3
05:43 7.1 3.9 80 1013.5 9.2 SE 10.7 0.0 0.3
05:44 7.1 3.9 80 1013.5 9.2 SE 10.7 0.0 0.3
05:45 7.1 3.9 80 1013.2 5.4 NW 10.7 0.0 0.3
05:46 7.1 3.9 80 1013.4 6.0 SW 10.7 0.0 0.3
05:47 7.1 3.9 80 1013.4 7.6 NW 10.7 0.0 0.3
05:48 7.1 3.9 80 1013.5 9.8 WSW 10.7 0.0 0.3
05:49 7.1 3.9 80 1013.6 6.9 SW 10.7 0.0 0.3
05:50 7.2 4.0 80 1013.4 11.4 SW 11.4 0.0 0.3
05:51 7.2 3.8 79 1013.7 9.2 S 11.4 0.0 0.3
05:52 7.2 3.8 79 1013.4 9.8 N 11.4 0.0 0.3
05:54 7.2 3.8 79 1013.5 13.6 E 13.6 0.0 0.3
05:55 7.2 3.8 79 1013.5 8.3 SW 13.6 0.0 0.3
05:56 7.2 3.8 79 1013.5 4.5 S 13.6 0.0 0.3
05:57 7.2 3.8 79 1013.6 6.0 NW 13.6 0.0 0.3
05:58 7.2 3.8 79 1013.6 9.2 SW 13.6 0.0 0.3
05:59 7.2 3.6 78 1013.6 6.0 SE 13.6 0.0 0.3
06:00 7.2 3.6 78 1013.6 6.0 SE 13.6 0.0 0.3
06:01 7.2 3.6 78 1013.5 9.2 S 13.6 0.0 0.3
06:02 7.2 3.6 78 1013.5 6.0 SE 13.6 0.0 0.3
06:03 7.2 3.6 78 1013.5 10.7 S 13.6 0.0 0.3
06:04 7.2 3.6 78 1013.5 9.8 WNW 13.6 0.0 0.3
06:05 7.2 3.6 78 1013.5 9.8 W 10.7 0.0 0.3
06:06 7.2 3.6 78 1013.4 7.6 W 10.7 0.0 0.3
06:07 7.2 3.6 78 1013.4 5.4 SE 10.7 0.0 0.3
06:09 7.3 3.7 78 1013.5 5.4 ENE 10.7 0.0 0.3
06:10 7.2 3.6 78 1013.3 8.3 E 10.7 0.0 0.3
06:11 7.2 3.6 78 1013.4 6.0 NW 10.7 0.0 0.3
06:12 7.2 3.6 78 1013.3 6.0 NE 10.7 0.0 0.3
06:13 7.2 3.6 78 1013.4 6.0 NE 9.8 0.0 0.3
06:14 7.2 3.6 78 1013.5 5.4 N 9.8 0.0 0.3
06:15 7.2 3.6 78 1013.5 5.4 N 9.8 0.0 0.3
06:16 7.2 3.4 77 1013.5 6.0 SE 8.3 0.0 0.3
06:17 7.2 3.6 78 1013.5 7.6 S 8.3 0.0 0.3
06:18 7.2 3.6 78 1013.6 6.9 ENE 8.3 0.0 0.3
06:19 7.2 3.6 78 1013.5 6.0 ENE 8.3 0.0 0.3
06:20 7.2 3.6 78 1013.6 10.7 SE 10.7 0.0 0.3
06:21 7.2 3.6 78 1013.7 6.0 NW 13.6 0.0 0.3
06:22 7.2 3.6 78 1013.6 8.3 NE 13.6 0.0 0.3
06:23 7.2 3.6 78 1013.5 9.2 NW 13.6 0.0 0.3
06:24 7.2 3.6 78 1013.6 6.9 NW 13.6 0.0 0.3
06:25 7.2 3.6 78 1013.5 7.6 S 13.6 0.0 0.3
06:26 7.2 3.6 78 1013.5 9.2 SE 13.6 0.0 0.3
06:27 7.2 3.6 78 1013.3 9.8 N 13.6 0.0 0.3
06:28 7.2 3.6 78 1013.3 7.6 ENE 13.6 0.8 0.3
06:29 7.2 3.6 78 1013.4 6.0 SSE 13.6 0.8 0.3
06:30 7.2 3.8 79 1013.5 8.3 WSW 13.6 0.8 0.3
06:31 7.2 3.6 78 1013.4 6.9 NE 9.8 0.8 0.3
06:32 7.2 3.6 78 1013.4 7.6 S 9.8 0.8 0.3
06:33 7.2 3.6 78 1013.5 8.3 S 11.4 0.0 0.3
06:34 7.2 3.6 78 1013.5 9.8 S 11.4 0.0 0.3
06:35 7.2 3.6 78 1013.5 8.3 E 11.4 0.0 0.3
06:36 7.2 3.6 78 1013.5 7.6 W 11.4 0.0 0.3
06:37 7.2 3.6 78 1013.6 8.3 SE 11.4 0.0 0.3
06:38 7.2 3.6 78 1013.3 10.7 SE 11.4 0.0 0.3
06:39 7.2 3.6 78 1013.4 11.4 NW 11.4 0.0 0.3
06:40 7.2 3.6 78 1013.5 6.9 E 11.4 0.0 0.3
06:41 7.2 3.6 78 1013.5 9.8 SE 11.4 0.0 0.3
06:42 7.2 3.6 78 1013.5 8.3 N 11.4 0.0 0.3
06:43 7.2 3.6 78 1013.5 8.3 N 11.4 0.0 0.3
06:44 7.2 3.6 78 1013.5 5.4 N 11.4 0.0 0.3
06:45 7.2 3.6 78 1013.5 7.6 SE 15.9 0.0 0.3
06:46 7.2 3.6 78 1013.6 9.8 NW 15.9 0.0 0.3
06:47 7.2 3.6 78 1013.7 9.2 NW 15.9 0.0 0.3
06:48 7.2 3.6 78 1013.5 6.0 E 15.9 0.0 0.3
06:49 7.2 3.6 78 1013.5 7.6 NNW 15.9 0.0 0.3
06:51 7.2 3.6 78 1013.6 7.6 E 15.9 0.0 0.3
06:52 7.2 3.6 78 1013.5 9.2 NE 15.9 0.0 0.3
06:53 7.2 3.6 78 1013.5 6.9 WSW 15.9 0.0 0.3
06:54 7.2 3.4 77 1013.5 5.4 N 9.8 0.0 0.3
06:55 7.2 3.6 78 1013.6 5.4 N 9.8 0.0 0.3
06:56 7.2 3.6 78 1013.5 9.2 NE 9.2 0.0 0.3
06:57 7.2 3.6 78 1013.5 11.4 SE 11.4 0.0 0.3
06:58 7.2 3.6 78 1013.5 8.3 S 11.4 0.0 0.3
06:59 7.2 3.6 78 1013.6 10.7 NW 11.4 0.0 0.3
07:00 7.2 3.6 78 1013.5 7.6 SW 11.4 0.0 0.3
07:01 7.2 3.6 78 1013.5 7.6 SW 11.4 0.0 0.3
07:02 7.2 3.6 78 1013.6 7.6 SW 11.4 0.0 0.3
07:03 7.2 3.6 78 1013.5 7.6 SW 11.4 0.0 0.3
07:04 7.2 3.6 78 1013.6 7.6 SW 11.4 0.0 0.3
07:05 7.2 3.6 78 1013.4 7.6 SW 11.4 0.0 0.3
07:06 7.3 3.5 77 1013.6 6.0 NW 11.4 0.0 0.3
07:07 7.3 3.5 77 1013.5 10.7 WNW 11.4 0.0 0.3
07:09 7.3 3.5 77 1013.5 10.7 N 10.7 0.0 0.3
07:10 7.3 3.5 77 1013.5 8.3 SE 10.7 0.0 0.3
07:11 7.3 3.5 77 1013.5 6.9 E 10.7 0.0 0.3
07:12 7.3 3.5 77 1013.6 9.8 NW 10.7 0.0 0.3
07:13 7.4 3.6 77 1013.6 10.7 NE 10.7 0.0 0.3
07:14 7.4 3.6 77 1013.5 7.6 N 10.7 0.0 0.3
07:15 7.4 3.6 77 1013.6 9.2 E 10.7 0.0 0.3
07:16 7.4 3.6 77 1013.7 8.3 NW 10.7 0.0 0.3
07:17 7.4 3.6 77 1013.5 6.0 NE 14.5 0.0 0.3
07:18 7.4 3.6 77 1013.6 8.3 S 14.5 0.0 0.3
07:19 7.4 3.6 77 1013.7 7.6 NE 14.5 0.0 0.3
07:20 7.4 3.6 77 1013.5 9.2 N 14.5 0.0 0.3
07:21 7.4 3.6 77 1013.5 6.0 SW 14.5 0.0 0.3
07:23 7.4 3.6 77 1013.6 6.9 W 14.5 0.0 0.3
07:24 7.4 3.6 77 1013.5 6.0 NW 14.5 0.0 0.3
07:25 7.4 3.4 76 1013.4 6.0 E 14.5 0.0 0.3
07:26 7.4 3.4 76 1013.5 7.6 NW 9.8 0.0 0.3
07:27 7.4 3.6 77 1013.6 7.6 NE 9.8 0.0 0.3
07:28 7.4 3.4 76 1013.5 9.2 E 9.8 0.0 0.3
07:29 7.4 3.4 76 1013.5 7.6 SE 9.8 0.0 0.3
07:30 7.4 3.4 76 1013.4 14.5 SE 14.5 0.0 0.3
07:31 7.4 3.4 76 1013.6 8.3 SW 14.5 0.0 0.3
07:32 7.4 3.4 76 1013.6 11.4 NW 14.5 0.0 0.3
07:33 7.5 3.5 76 1013.6 8.3 E 14.5 0.0 0.3
07:34 7.4 3.4 76 1013.6 7.6 N 14.5 0.0 0.3
07:35 7.4 3.4 76 1013.5 7.6 S 14.5 0.0 0.3
07:37 7.4 3.4 76 1013.6 6.9 NE 14.5 0.0 0.3
07:38 7.4 3.4 76 1013.6 5.4 S 14.5 0.0 0.3
07:39 7.4 3.4 76 1013.6 5.4 NW 14.5 0.0 0.3
07:40 7.4 3.3 75 1013.5 5.4 S 11.4 0.0 0.3
07:41 7.5 3.5 76 1013.6 8.3 N 11.4 0.0 0.3
07:42 7.4 3.4 76 1013.4 6.0 N 9.8 0.0 0.3
07:43 7.4 3.4 76 1013.4 6.0 N 9.8 0.0 0.3
07:44 7.4 3.4 76 1013.5 6.0 SW 9.8 0.0 0.3
07:45 7.4 3.4 76 1013.5 9.8 N 9.8 0.0 0.3
07:46 7.4 3.4 76 1013.4 6.9 SW 9.8 0.0 0.3
07:47 7.4 3.4 76 1013.5 6.9 SW 9.8 0.0 0.3
07:48 7.4 3.4 76 1013.4 6.9 SW 9.8 0.0 0.3
07:49 7.4 3.4 76 1013.5 4.5 SW 9.8 0.0 0.3
07:51 7.4 3.4 76 1013.5 8.3 SE 9.8 0.0 0.3
07:52 7.4 3.4 76 1013.3 6.9 S 9.8 0.0 0.3
07:53 7.5 3.5 76 1013.5 3.8 SE 9.8 0.0 0.3
07:54 7.5 3.5 76 1013.5 6.9 WSW 9.8 0.0 0.3
07:55 7.5 3.5 76 1013.7 7.6 NW 9.8 0.0 0.3
07:56 7.5 3.5 76 1013.7 7.6 NW 9.8 0.0 0.3
07:57 7.4 3.4 76 1013.7 4.5 N 9.8 0.0 0.3
07:58 7.5 3.5 76 1013.6 10.7 NE 10.7 0.8 0.4
07:59 7.4 3.4 76 1013.6 6.0 NE 10.7 0.8 0.4
08:00 7.4 3.4 76 1013.7 6.0 N 10.7 0.8 0.4
08:01 7.4 3.4 76 1013.5 6.0 N 10.7 0.8 0.4
08:02 7.4 3.4 76 1013.6 6.0 N 10.7 0.8 0.4
08:03 7.4 3.4 76 1013.7 6.0 N 10.7 0.0 0.4
08:05 7.4 3.4 76 1013.6 4.5 NW 10.7 0.0 0.4
08:06 7.4 3.4 76 1013.6 6.9 E 10.7 0.0 0.4
08:07 7.4 3.6 77 1013.5 5.4 E 10.7 0.0 0.4
08:08 7.4 3.6 77 1013.5 5.4 SE 6.9 0.0 0.4
08:09 7.4 3.6 77 1013.4 6.0 NE 6.9 0.0 0.4
08:10 7.4 3.6 77 1013.4 6.0 NE 6.9 0.0 0.4
08:11 7.4 3.6 77 1013.7 6.0 NE 6.9 0.0 0.4
08:12 7.4 3.4 76 1013.6 5.4 N 6.9 0.0 0.4
08:13 7.4 3.4 76 1013.7 4.5 S 6.9 0.0 0.4
08:14 7.4 3.4 76 1013.7 6.9 E 6.9 0.0 0.4
08:15 7.4 3.4 76 1013.5 5.4 NE 6.9 0.0 0.4
08:16 7.4 3.4 76 1013.6 7.6 WSW 7.6 0.0 0.4
08:17 7.4 3.4 76 1013.6 4.5 NW 13.6 0.0 0.4
08:18 7.4 3.4 76 1013.6 6.0 WNW 13.6 0.0 0.4
08:20 7.5 3.7 77 1013.5 7.6 NE 13.6 0.0 0.4
08:21 7.5 3.5 76 1013.5 8.3 NE 13.6 0.0 0.4
08:22 7.5 3.5 76 1013.6 6.0 NW 13.6 0.0 0.4
08:23 7.5 3.5 76 1013.5 7.6 NW 13.6 0.0 0.4
08:24 7.5 3.5 76 1013.4 6.9 SW 13.6 0.0 0.4
08:25 7.5 3.5 76 1013.4 5.4 NE 13.6 0.0 0.4
08:26 7.5 3.5 76 1013.5 4.5 N 13.6 0.0 0.4
08:27 7.5 3.5 76 1013.4 6.0 S 10.7 0.0 0.4
08:28 7.6 3.6 76 1013.4 5.4 E 10.7 0.0 0.4
08:29 7.5 3.5 76 1013.4 6.9 NE 10.7 0.0 0.4
08:30 7.5 3.5 76 1013.5 15.9 SW 15.9 0.0 0.4
08:31 7.6 3.6 76 1013.4 7.6 E 15.9 0.0 0.4
08:32 7.5 3.5 76 1013.1 8.3 NE 15.9 0.0 0.4
08:34 7.6 3.6 76 1013.1 8.3 NE 15.9 0.0 0.4
08:35 7.6 3.6 76 1013.2 8.3 N 15.9 0.0 0.4
08:36 7.6 3.5 75 1013.1 7.6 S 15.9 0.0 0.4
08:37 7.6 3.6 76 1013.2 6.9 SW 15.9 0.0 0.4
08:38 7.6 3.5 75 1013.0 9.2 W 15.9 0.0 0.4
08:39 7.6 3.5 75 1013.2 7.6 N 15.9 0.0 0.4
08:40 7.6 3.5 75 1013.2 7.6 N 15.9 0.0 0.4
08:41 7.6 3.5 75 1013.0 7.6 NW 9.8 0.0 0.4
08:42 7.6 3.5 75 1013.0 6.0 N 9.8 0.0 0.4
08:43 7.6 3.5 75 1013.1 8.3 SW 9.8 0.0 0.4
08:44 7.6 3.5 75 1013.2 8.3 SW 9.8 0.0 0.4
08:45 7.6 3.5 75 1013.1 5.4 NW 9.8 0.0 0.4
08:46 7.7 3.6 75 1013.0 9.2 WNW 9.8 0.0 0.4
08:47 7.7 3.6 75 1013.0 8.3 N 9.2 0.0 0.4
08:49 7.7 3.6 75 1013.2 8.3 NW 9.8 0.0 0.4
08:50 7.7 3.6 75 1013.0 8.3 NW 9.8 0.0 0.4
08:51 7.7 3.6 75 1013.0 6.0 W 9.8 0.0 0.4
08:52 7.7 3.6 75 1012.9 6.9 W 9.8 0.0 0.4
08:53 7.7 3.6 75 1012.9 7.6 NW 9.8 0.0 0.4
08:54 7.8 3.6 75 1013.1 6.9 N 9.8 0.0 0.4
08:55 7.8 3.6 75 1012.9 8.3 WNW 9.8 0.0 0.4
08:56 7.8 3.6 75 1013.0 7.6 WNW 9.8 0.0 0.4
08:57 7.8 3.6 75 1013.0 6.9 S 9.8 0.0 0.4
08:58 7.8 3.6 75 1013.0 9.8 S 9.8 0.0 0.4
08:59 7.8 3.6 75 1013.0 10.7 NW 10.7 0.0 0.4
09:00 7.8 3.6 75 1012.8 7.6 N 10.7 0.0 0.4
09:01 7.8 3.6 75 1012.9 6.9 SW 10.7 0.0 0.4
09:02 7.8 3.6 75 1013.1 7.6 NW 10.7 0.0 0.4
09:03 7.8 3.6 75 1013.0 7.6 S 10.7 0.0 0.4
09:04 7.8 3.6 75 1012.9 7.6 SE 10.7 0.0 0.4
09:05 7.8 3.6 75 1012.8 7.6 NE 10.7 0.0 0.4
09:07 7.7 3.4 74 1012.8 8.3 E 11.4 0.0 0.4
09:08 7.8 3.5 74 1012.8 6.9 NW 11.4 0.0 0.4
09:09 7.7 3.4 74 1012.7 12.1 NE 12.1 0.0 0.4
09:10 7.8 3.5 74 1012.7 9.2 NW 12.1 0.0 0.4
09:11 7.8 3.5 74 1012.7 9.2 NW 12.1 0.0 0.4
09:12 7.8 3.5 74 1012.7 7.6 SW 12.1 0.0 0.4
09:13 7.8 3.5 74 1012.7 6.9 NW 12.1 0.0 0.4
09:14 7.8 3.5 74 1012.6 8.3 N 12.1 0.0 0.4
09:15 7.8 3.5 74 1012.7 9.8 NE 12.1 0.0 0.4
09:16 7.8 3.5 74 1012.6 7.6 NE 12.1 0.0 0.4
09:17 7.8 3.5 74 1012.7 6.9 W 12.1 0.0 0.4
09:18 7.8 3.5 74 1012.5 6.0 NW 12.1 0.0 0.4
09:19 7.8 3.5 74 1012.5 6.9 N 9.8 0.0 0.4
09:21 7.8 3.5 74 1012.5 7.6 NW 9.8 0.0 0.4
09:22 7.8 3.5 74 1012.4 6.9 SW 9.8 0.0 0.4
09:23 7.8 3.5 74 1012.6 9.2 N 9.8 0.0 0.4
09:24 7.8 3.5 74 1012.4 6.0 N 9.8 0.0 0.4
09:25 7.9 3.6 74 1012.3 10.7 NW 10.7 0.0 0.4
09:26 7.9 3.6 74 1012.2 8.3 WNW 10.7 0.0 0.4
09:27 7.9 3.6 74 1012.2 6.0 NW 10.7 0.0 0.4
09:28 7.9 3.6 74 1012.2 6.0 SW 10.7 0.0 0.4
09:29 8.0 3.7 74 1012.3 5.4 SW 10.7 0.0 0.4
09:30 8.0 3.7 74 1012.2 5.4 SE 10.7 0.0 0.4
09:31 8.0 3.7 74 1012.3 7.6 SE 10.7 0.0 0.4
09:32 8.0 3.7 74 1012.3 6.0 NW 10.7 0.0 0.4
09:33 8.1 3.6 73 1012.2 6.9 E 10.7 0.0 0.4
09:35 8.1 3.6 73 1012.3 6.0 NW 9.2 0.0 0.4
09:36 8.1 3.6 73 1012.2 6.9 NE 9.2 0.0 0.4
09:37 8.1 3.6 73 1012.0 11.4 NW 11.4 0.0 0.4
09:38 8.2 3.7 73 1012.2 6.0 SW 11.4 0.0 0.4
09:39 8.2 3.7 73 1012.3 6.0 N 11.4 0.0 0.4
09:40 8.2 3.7 73 1012.3 6.0 N 11.4 0.0 0.4
09:41 8.2 3.7 73 1012.2 9.2 N 11.4 0.0 0.4
09:42 8.2 3.7 73 1012.2 8.3 SE 11.4 0.0 0.4
09:43 8.2 3.7 73 1012.3 8.3 NE 11.4 0.0 0.4
09:44 8.2 3.7 73 1012.3 7.6 N 11.4 0.0 0.4
09:45 8.2 3.5 72 1012.2 9.8 S 11.4 0.0 0.4
09:46 8.2 3.5 72 1012.3 6.0 NE 11.4 0.0 0.4
09:47 8.2 3.5 72 1012.1 7.6 N 9.8 0.0 0.4
09:49 8.2 3.5 72 1012.2 9.2 SE 9.8 0.0 0.4
09:50 8.2 3.5 72 1012.4 8.3 S 9.8 0.0 0.4
09:51 8.2 3.5 72 1012.3 8.3 WNW 9.8 0.0 0.4
09:52 8.2 3.5 72 1012.3 9.2 NW 9.8 0.0 0.4
09:53 8.2 3.5 72 1012.1 5.4 NW 9.8 0.0 0.4
09:54 8.2 3.5 72 1012.3 5.4 SW 9.8 0.0 0.4
09:55 8.2 3.5 72 1012.2 8.3 W 9.8 0.0 0.4
09:56 8.2 3.5 72 1012.3 9.2 E 9.8 0.0 0.4
09:57 8.2 3.5 72 1012.4 9.8 SE 9.8 0.0 0.4
09:58 8.2 3.5 72 1012.3 8.3 NE 9.8 0.0 0.4
09:59 8.2 3.5 72 1012.3 5.4 N 9.8 0.0 0.4
10:00 8.3 3.6 72 1012.1 6.9 SW 9.8 0.0 0.4
10:01 8.3 3.6 72 1012.2 5.4 W 9.8 0.0 0.4
10:02 8.3 3.6 72 1012.1 5.4 W 9.8 0.0 0.4
10:04 8.3 3.6 72 1012.1 5.4 W 9.8 0.0 0.4
10:05 8.3 3.6 72 1012.2 5.4 W 9.8 0.0 0.4
10:06 8.2 3.5 72 1012.1 6.9 N 9.8 0.0 0.4
10:07 8.2 3.5 72 1012.1 6.9 N 8.3 0.0 0.4
10:08 8.2 3.5 72 1012.1 6.9 N 8.3 0.0 0.4
10:09 8.2 3.3 71 1012.2 7.6 NE 14.5 0.0 0.4
10:10 8.2 3.3 71 1012.3 9.2 NE 14.5 0.0 0.4
10:11 8.2 3.3 71 1012.1 11.4 E 14.5 0.0 0.4
10:12 8.2 3.3 71 1012.0 7.6 SSW 14.5 0.0 0.4
10:13 8.2 3.3 71 1012.0 5.4 N 14.5 0.0 0.4
10:14 8.2 3.3 71 1012.1 11.4 NW 14.5 0.0 0.4
10:15 8.2 3.3 71 1012.0 9.2 W 14.5 0.0 0.4
10:16 8.2 3.3 71 1012.0 6.0 NE 14.5 0.0 0.4
10:18 8.2 3.3 71 1012.0 3.8 N 12.1 0.0 0.4
10:19 8.2 3.3 71 1012.0 8.3 N 12.1 0.0 0.4
10:20 8.2 3.3 71 1012.1 7.6 WNW 12.1 0.0 0.4
10:21 8.2 3.3 71 1012.0 9.2 S 12.1 0.0 0.4
10:22 8.2 3.3 71 1012.1 7.6 E 12.1 0.0 0.4
10:23 8.2 3.3 71 1012.1 7.6 E 12.1 0.0 0.4
10:24 8.2 3.3 71 1012.0 8.3 N 12.1 0.0 0.4
10:25 8.3 3.4 71 1011.9 7.6 SE 12.1 0.0 0.4
10:26 8.3 3.4 71 1012.1 7.6 N 12.1 0.0 0.4
10:27 8.3 3.4 71 1012.0 5.4 E 12.1 0.0 0.4
10:28 8.3 3.4 71 1012.0 9.2 NW 12.1 0.0 0.4
10:29 8.3 3.4 71 1012.0 6.9 SE 12.1 0.0 0.4
10:30 8.3 3.4 71 1011.9 10.7 NW 12.1 0.0 0.4
10:32 8.4 3.4 71 1012.0 9.8 SW 12.1 0.0 0.4
10:33 8.3 3.4 71 1012.0 8.3 N 12.1 0.0 0.4
10:34 8.4 3.4 71 1012.0 7.6 N 11.4 0.0 0.4
10:35 8.4 3.4 71 1012.1 6.9 NW 11.4 0.0 0.4
10:36 8.3 3.4 71 1012.1 6.0 N 11.4 0.0 0.4
10:37 8.3 3.4 71 1012.0 5.4 N 11.4 0.0 0.4
10:38 8.4 3.2 70 1012.0 6.0 N 11.4 0.0 0.4
10:39 8.4 3.2 70 1012.0 6.0 NW 11.4 0.0 0.4
10:40 8.3 3.4 71 1011.9 15.9 NW 15.9 0.0 0.4
10:41 8.3 3.2 70 1012.0 13.0 NW 15.9 0.0 0.4
10:42 8.3 3.2 70 1012.0 6.0 S 15.9 0.0 0.4
10:43 8.3 3.2 70 1011.9 6.9 W 15.9 0.0 0.4
10:44 8.3 3.2 70 1011.9 10.7 N 15.9 0.0 0.4
10:45 8.3 3.2 70 1011.9 9.8 W 15.9 0.0 0.4
10:47 8.3 3.2 70 1011.8 9.8 NE 15.9 0.0 0.4
10:48 8.3 3.2 70 1011.8 8.3 SE 15.9 0.0 0.4
10:49 8.4 3.2 70 1011.8 7.6 NW 15.9 0.0 0.4
10:50 8.3 3.2 70 1011.7 5.4 S 13.0 0.0 0.4
10:51 8.3 3.2 70 1011.7 5.4 S 13.0 0.0 0.4
10:52 8.3 3.2 70 1011.9 6.0 N 10.7 0.0 0.4
10:53 8.3 3.2 70 1011.7 9.8 NE 10.7 0.0 0.4
10:54 8.3 3.2 70 1011.8 9.8 NE 10.7 0.0 0.4
10:55 8.4 3.2 70 1011.8 6.0 N 10.7 0.0 0.4
10:56 8.4 3.2 70 1011.8 14.5 E 14.5 0.0 0.4
10:57 8.4 3.2 70 1011.7 6.9 NE 14.5 0.0 0.4
10:58 8.4 3.2 70 1011.6 8.3 N 14.5 0.0 0.4
10:59 8.4 3.2 70 1011.6 6.0 N 14.5 0.0 0.4
11:01 8.4 3.2 70 1011.5 6.9 SW 14.5 0.0 0.4
11:02 8.5 3.3 70 1011.6 6.9 NW 14.5 0.0 0.4
11:03 8.5 3.3 70 1011.5 9.8 SW 14.5 0.0 0.4
11:04 8.5 3.3 70 1011.5 8.3 W 14.5 0.0 0.4
11:05 8.6 3.4 70 1011.6 9.2 N 14.5 0.0 0.4
11:06 8.6 3.4 70 1011.7 7.6 N 9.8 0.0 0.4
11:07 8.6 3.4 70 1011.5 7.6 N 9.8 0.0 0.4
11:08 8.7 3.5 70 1011.6 7.6 ENE 9.8 0.0 0.4
11:09 8.7 3.5 70 1011.5 9.2 NE 9.8 0.0 0.4
11:10 8.7 3.5 70 1011.4 6.9 NE 9.8 0.0 0.4
11:11 8.7 3.5 70 1011.5 11.4 NE 11.4 0.0 0.4
11:12 8.8 3.6 70 1011.6 6.0 N 11.4 0.0 0.4
11:13 8.8 3.6 70 1011.4 10.7 NE 11.4 0.0 0.4
11:14 8.8 3.6 70 1011.4 8.3 W 11.4 0.0 0.4
11:15 8.9 3.7 70 1011.4 6.9 NW 11.4 0.0 0.4
11:16 8.9 3.7 70 1011.6 4.5 SW 11.4 0.0 0.4
11:17 9.0 3.8 70 1011.5 9.8 NW 12.1 0.0 0.4
11:19 9.0 3.8 70 1011.5 5.4 NE 12.1 0.0 0.4
11:20 9.0 3.8 70 1011.5 7.6 NW 12.1 0.0 0.4
11:21 9.0 3.8 70 1011.5 6.9 SE 12.1 0.0 0.4
11:22 9.1 3.9 70 1011.5 7.6 NW 12.1 0.0 0.4
11:23 9.1 3.9 70 1011.5 7.6 NW 12.1 0.0 0.4
11:24 9.1 3.9 70 1011.5 6.9 E 12.1 0.0 0.4
11:25 9.1 3.9 70 1011.6 10.7 N 12.1 0.0 0.4
11:26 9.1 3.7 69 1011.6 6.0 SE 12.1 0.0 0.4
11:27 9.1 3.7 69 1011.6 4.5 SW 12.1 0.0 0.4
11:28 9.1 3.7 69 1011.5 7.6 N 10.7 0.0 0.4
11:29 9.2 3.8 69 1011.7 6.9 SE 10.7 0.0 0.4
11:30 9.2 3.8 69 1011.5 8.3 E 10.7 0.0 0.4
11:31 9.2 3.8 69 1011.6 7.6 NW 10.7 0.0 0.4
11:33 9.2 3.8 69 1011.6 15.2 S 15.2 0.0 0.4
11:34 9.2 3.6 68 1011.4 7.6 S 15.2 0.0 0.4
11:35 9.3 3.9 69 1011.5 7.6 NW 15.2 0.0 0.4
11:36 9.3 3.9 69 1011.5 8.3 NNW 15.2 0.0 0.4
11:37 9.3 3.9 69 1011.5 9.2 WNW 15.2 0.0 0.4
11:38 9.3 3.9 69 1011.4 6.9 WNW 15.2 0.0 0.4
11:39 9.3 3.9 69 1011.5 6.9 NW 15.2 0.0 0.4
11:40 9.3 3.9 69 1011.5 9.2 N 15.2 0.0 0.4
11:41 9.4 4.0 69 1011.5 7.6 N 15.2 0.0 0.4
11:42 9.4 3.8 68 1011.5 9.8 NE 15.2 0.0 0.4
11:43 9.4 3.8 68 1011.6 5.4 NNW 15.2 0.0 0.4
11:44 9.4 3.8 68 1011.4 7.6 NW 15.2 0.0 0.4
11:45 9.4 3.8 68 1011.4 7.6 WNW 12.1 0.0 0.4
11:47 9.4 3.8 68 1011.3 6.0 NE 12.1 0.0 0.4
11:48 9.4 3.8 68 1011.4 8.3 E 12.1 0.0 0.4
11:49 9.4 3.8 68 1011.3 10.7 NW 12.1 0.0 0.4
11:50 9.4 3.8 68 1011.2 9.8 SW 12.1 0.0 0.4
11:51 9.4 3.8 68 1011.2 9.8 SW 12.1 0.0 0.4
11:52 9.3 3.5 67 1011.3 10.7 W 12.1 0.0 0.4
11:53 9.3 3.5 67 1011.2 6.9 NW 12.1 0.0 0.4
11:54 9.3 3.5 67 1011.3 6.9 N 11.4 0.0 0.4
11:55 9.3 3.5 67 1011.3 6.9 W 11.4 0.0 0.4
11:56 9.3 3.7 68 1011.2 6.0 W 10.7 0.0 0.4
11:57 9.3 3.5 67 1011.3 9.2 NW 13.0 0.0 0.4
11:58 9.3 3.7 68 1011.2 8.3 NW 13.0 0.0 0.4
11:59 9.3 3.7 68 1011.3 9.2 N 13.0 0.0 0.4
12:01 9.3 3.5 67 1011.2 11.4 NW 13.0 0.0 0.4
12:02 9.2 3.4 67 1011.3 7.6 NW 13.0 0.0 0.4
12:03 9.2 3.4 67 1011.3 13.0 E 13.0 0.0 0.4
12:04 9.2 3.4 67 1011.5 8.3 NW 13.0 0.0 0.4
12:05 9.2 3.4 67 1011.4 6.9 NW 13.0 0.0 0.4
12:06 9.2 3.4 67 1011.1 7.6 NE 13.0 0.0 0.4
12:07 9.2 3.4 67 1011.1 13.0 NW 13.0 0.0 0.4
12:08 9.2 3.4 67 1011.1 10.7 WNW 13.0 0.0 0.4
12:09 9.1 3.3 67 1011.3 8.3 SW 13.0 0.0 0.4
12:10 9.1 3.3 67 1011.1 5.4 ENE 13.0 0.0 0.4
12:11 9.1 3.3 67 1011.1 6.0 N 13.0 0.0 0.4
12:12 9.1 3.5 68 1011.1 7.6 NE 13.0 0.0 0.4
12:13 9.1 3.3 67 1011.0 8.3 NW 13.0 0.0 0.4
12:14 9.1 3.3 67 1011.0 10.7 N 13.0 0.0 0.4
12:16 9.1 3.3 67 1011.2 13.6 S 13.6 0.0 0.4
12:17 9.0 3.2 67 1011.3 13.0 SW 13.6 0.0 0.4
12:18 9.0 3.2 67 1011.0 8.3 SE 13.6 0.0 0.4
12:19 9.0 3.2 67 1011.1 15.9 N 15.9 0.0 0.4
12:20 9.0 3.2 67 1011.0 10.7 N 15.9 0.0 0.4
12:21 9.0 3.2 67 1011.0 7.6 NW 15.9 0.0 0.4
12:22 9.0 3.2 67 1011.0 9.2 SW 15.9 0.0 0.4
12:23 9.0 3.2 67 1011.1 9.8 NE 15.9 0.0 0.4
12:24 9.0 3.2 67 1011.0 8.3 NE 15.9 0.0 0.4
12:25 9.0 3.2 67 1011.0 7.6 NE 15.9 0.0 0.4
12:26 8.9 3.1 67 1011.0 8.3 NE 15.9 0.0 0.4
12:27 8.9 3.1 67 1011.0 13.6 S 15.9 0.0 0.4
12:28 8.9 3.1 67 1010.9 6.9 N 15.9 0.0 0.4
12:29 8.9 3.1 67 1011.0 13.6 NE 15.9 0.0 0.4
12:31 8.9 3.1 67 1011.0 9.2 NW 13.6 0.0 0.4
12:32 8.9 3.1 67 1011.0 13.0 WNW 13.6 0.0 0.4
12:33 8.9 3.1 67 1010.8 9.2 N 13.6 0.0 0.4
12:34 8.9 3.1 67 1010.8 9.2 N 13.6 0.0 0.4
12:35 8.9 3.1 67 1011.0 5.4 WNW 13.6 0.0 0.4
12:36 8.9 3.1 67 1011.0 4.5 WNW 13.6 0.0 0.4
12:37 8.9 3.1 67 1011.0 6.9 WSW 13.6 0.0 0.4
12:38 8.9 3.1 67 1010.8 8.3 NW 13.6 0.0 0.4
12:39 8.9 3.1 67 1010.8 8.3 NW 13.6 0.0 0.4
12:40 8.9 3.1 67 1010.7 9.8 NW 13.0 0.0 0.4
12:41 9.0 3.2 67 1010.7 11.4 WNW 13.0 0.0 0.4
12:42 9.0 3.2 67 1010.8 10.7 NE 11.4 0.0 0.4
12:43 9.0 3.2 67 1010.7 6.9 WNW 11.4 0.0 0.4
12:45 9.0 3.2 67 1010.6 6.9 NE 14.5 0.0 0.4
12:46 9.0 3.2 67 1010.6 9.2 NW 14.5 0.0 0.4
12:47 9.0 3.2 67 1010.5 11.4 SSW 14.5 0.0 0.4
12:48 9.0 3.2 67 1010.6 16.8 NW 16.8 0.0 0.4
12:49 9.0 3.2 67 1010.6 11.4 NE 16.8 0.0 0.4
12:50 9.0 3.2 67 1010.6 6.9 N 16.8 0.0 0.4
12:51 9.0 3.2 67 1010.5 6.9 NW 16.8 0.0 0.4
12:52 9.0 3.2 67 1010.4 9.2 SW 16.8 0.0 0.4
12:53 9.0 3.2 67 1010.6 6.9 NE 16.8 0.0 0.4
12:54 9.0 3.2 67 1010.6 9.8 SE 16.8 0.0 0.4
12:55 9.0 3.0 66 1010.5 9.8 NW 16.8 0.0 0.4
12:56 9.0 3.0 66 1010.5 8.3 NW 16.8 0.0 0.4
12:57 9.0 3.0 66 1010.5 9.8 NW 16.8 0.0 0.4
12:58 9.0 3.0 66 1010.5 9.8 NE 14.5 0.0 0.4
13:00 9.0 3.0 66 1010.4 6.9 NW 14.5 0.0 0.4
13:01 9.0 3.0 66 1010.5 8.3 W 14.5 0.0 0.4
13:02 9.0 3.0 66 1010.4 12.1 E 14.5 0.0 0.4
13:03 9.0 3.0 66 1010.4 6.9 NE 14.5 0.0 0.4
13:04 9.0 3.0 66 1010.4 4.5 SE 14.5 0.0 0.4
13:05 9.0 3.0 66 1010.4 4.5 E 12.1 0.0 0.4
13:06 9.0 3.0 66 1010.4 8.3 SE 12.1 0.0 0.4
13:07 9.0 3.0 66 1010.4 6.9 NE 12.1 0.0 0.4
13:08 9.0 3.0 66 1010.5 10.7 N 12.1 0.0 0.4
13:09 9.0 3.0 66 1010.5 7.6 NE 12.1 0.0 0.4
13:10 9.0 3.0 66 1010.4 8.3 SW 12.1 0.0 0.4
13:11 8.9 2.9 66 1010.5 9.2 N 12.1 0.0 0.4
13:12 8.9 2.9 66 1010.5 13.6 W 13.6 0.0 0.4
13:13 8.9 2.9 66 1010.4 9.8 NE 13.6 0.0 0.4
13:14 8.9 2.9 66 1010.4 16.8 N 16.8 0.0 0.4
13:15 8.9 2.9 66 1010.4 7.6 N 16.8 0.0 0.4
13:16 8.9 2.9 66 1010.3 10.7 N 16.8 0.0 0.4
13:18 8.8 2.8 66 1010.4 11.4 SE 16.8 0.0 0.4
13:19 8.8 2.8 66 1010.5 7.6 NE 16.8 0.0 0.4
13:20 8.8 2.8 66 1010.6 7.6 S 16.8 0.0 0.4
13:21 8.7 2.7 66 1010.5 8.3 W 16.8 0.0 0.4
13:22 8.7 2.7 66 1010.5 7.6 NW 16.8 0.0 0.4
13:23 8.7 2.7 66 1010.5 11.4 W 16.8 0.0 0.4
13:24 8.6 2.6 66 1010.7 8.3 E 16.8 0.0 0.4
13:25 8.6 2.6 66 1010.6 6.0 E 13.0 0.0 0.4
13:26 8.6 2.6 66 1010.6 6.9 NW 13.0 0.0 0.4
13:27 8.6 2.6 66 1010.8 9.2 N 13.0 0.0 0.4
13:28 8.5 2.5 66 1010.7 6.0 N 13.0 0.0 0.4
13:29 8.5 2.5 66 1010.7 6.0 W 13.0 0.0 0.4
13:30 8.5 2.7 67 1010.8 9.8 NE 13.0 0.0 0.4
13:32 8.4 2.6 67 1010.8 6.9 W 13.0 0.0 0.4
13:33 8.3 2.5 67 1010.9 8.3 E 11.4 0.0 0.4
13:34 8.3 2.5 67 1010.8 9.8 N 9.8 0.0 0.4
13:35 8.3 2.5 67 1011.0 7.6 N 9.8 0.0 0.4
13:36 8.2 2.4 67 1011.0 9.2 E 9.8 0.0 0.4
13:37 8.2 2.6 68 1010.9 10.7 N 10.7 0.0 0.4
13:38 8.2 2.6 68 1010.8 11.4 NW 11.4 0.0 0.4
13:39 8.1 2.6 68 1010.8 9.8 SW 11.4 0.0 0.4
13:40 8.1 2.6 68 1011.3 6.0 S 11.4 0.0 0.4
13:41 8.1 2.6 68 1011.0 8.3 N 11.4 0.0 0.4
13:42 8.0 2.7 69 1011.2 7.6 W 11.4 0.0 0.4
13:43 8.0 2.7 69 1011.2 6.9 S 11.4 0.0 0.4
13:44 8.0 2.7 69 1011.1 6.0 NE 11.4 0.0 0.4
13:46 7.9 2.6 69 1011.3 6.0 NW 11.4 0.0 0.4
13:47 7.9 2.8 70 1011.2 7.6 NW 11.4 0.0 0.4
13:48 7.9 2.8 70 1011.2 5.4 N 11.4 0.0 0.4
13:49 7.9 2.8 70 1011.2 7.6 NW 11.4 0.0 0.4
13:50 7.9 2.8 70 1011.0 6.0 N 11.4 0.0 0.4
13:51 7.8 2.9 71 1011.0 5.4 SW 11.4 0.0 0.4
13:52 7.8 2.9 71 1010.9 6.0 NW 7.6 0.0 0.4
13:53 7.8 2.9 71 1011.0 9.2 NW 9.2 0.0 0.4
13:54 7.8 2.9 71 1011.1 8.3 N 9.2 0.0 0.4
13:55 7.8 2.9 71 1011.0 6.9 NE 9.2 0.0 0.4
13:56 7.8 2.9 71 1011.0 6.9 NW 9.2 0.0 0.4
13:57 7.7 2.8 71 1011.2 5.4 N 9.2 0.0 0.4
13:58 7.7 3.0 72 1010.9 7.6 SW 9.2 0.0 0.4
13:59 7.7 3.0 72 1010.9 9.8 S 9.8 0.0 0.4
14:01 7.7 3.0 72 1011.0 5.4 N 9.8 0.0 0.4
14:02 7.7 3.0 72 1011.0 6.9 N 9.8 0.0 0.4
14:03 7.7 3.0 72 1011.1 8.3 S 9.8 0.8 0.4
14:04 7.7 3.0 72 1011.1 9.2 N 9.8 0.8 0.4
14:05 7.6 2.9 72 1010.9 6.0 E 9.8 0.8 0.4
14:06 7.6 3.1 73 1011.0 4.5 SW 9.8 0.8 0.4
14:07 7.6 3.1 73 1010.9 7.6 NW 9.8 0.8 0.4
14:08 7.6 3.1 73 1011.0 8.3 E 9.8 0.0 0.4
14:09 7.6 3.1 73 1011.0 6.9 E 9.8 0.0 0.4
14:10 7.6 3.1 73 1010.8 5.4 SW 9.2 0.0 0.4
14:11 7.6 3.1 73 1010.8 6.9 NE 9.2 0.8 0.5
14:12 7.6 3.1 73 1011.0 5.4 W 9.2 0.8 0.5
14:13 7.6 3.1 73 1011.0 4.5 N 10.7 0.8 0.6
14:15 7.6 3.3 74 1011.0 5.4 N 10.7 1.5 0.6
14:16 7.6 3.3 74 1010.9 6.9 WSW 10.7 1.5 0.6
14:17 7.5 3.2 74 1010.9 6.9 E 10.7 1.5 0.6
14:18 7.5 3.2 74 1010.9 6.9 E 10.7 1.5 0.6
14:19 7.5 3.2 74 1011.1 6.0 NW 10.7 0.8 0.7
14:20 7.5 3.2 74 1011.0 3.8 E 10.7 1.5 0.7
14:21 7.5 3.2 74 1011.1 4.5 E 10.7 0.8 0.8
14:22 7.5 3.2 74 1011.0 7.6 E 10.7 1.5 0.8
14:23 7.5 3.4 75 1011.2 6.0 NE 10.7 1.5 0.8
14:24 7.5 3.4 75 1011.1 11.4 WNW 11.4 1.5 0.8
14:25 7.5 3.4 75 1011.1 8.3 S 11.4 1.5 0.9
14:26 7.4 3.3 75 1011.2 6.9 S 11.4 2.3 0.9
14:27 7.4 3.3 75 1011.2 7.6 NW 11.4 1.5 0.9
14:28 7.4 3.3 75 1010.9 6.9 E 11.4 1.5 0.9
14:30 7.4 3.3 75 1011.0 9.8 E 11.4 1.5 1.0
14:31 7.4 3.4 76 1010.9 8.3 E 11.4 1.5 1.0
14:32 7.4 3.4 76 1011.0 8.3 N 11.4 1.5 1.0
14:33 7.4 3.4 76 1010.8 3.8 NW 11.4 1.5 1.0
14:34 7.4 3.4 76 1010.8 5.4 NW 11.4 0.8 1.0
14:35 7.3 3.4 76 1010.8 6.0 WNW 9.8 0.8 1.0
14:36 7.3 3.4 76 1010.9 6.0 NW 9.8 0.0 1.0
14:37 7.3 3.4 76 1010.6 6.9 NW 9.8 0.0 1.1
14:38 7.3 3.5 77 1010.6 7.6 N 9.8 0.8 1.1
14:39 7.4 3.6 77 1010.7 6.0 WSW 9.8 0.8 1.1
14:40 7.3 3.5 77 1010.5 9.2 N 9.8 0.8 1.1
14:41 7.3 3.5 77 1010.5 6.0 S 9.2 1.5 1.1
14:42 7.3 3.5 77 1010.5 5.4 N 9.2 1.5 1.1
14:44 7.3 3.5 77 1010.6 5.4 E 9.2 0.8 1.1
14:45 7.3 3.5 77 1010.6 6.0 W 9.2 0.8 1.1
14:46 7.3 3.5 77 1010.5 4.5 N 9.2 0.0 1.2
14:47 7.4 3.8 78 1010.5 7.6 WNW 9.2 0.8 1.2
14:48 7.4 3.8 78 1010.4 8.3 NE 9.2 0.8 1.3
14:49 7.4 3.8 78 1010.3 9.8 W 9.8 1.5 1.3
14:50 7.4 3.8 78 1010.5 5.4 N 9.8 1.5 1.3
14:51 7.4 3.8 78 1010.4 6.0 N 9.8 1.5 1.3
14:52 7.4 3.8 78 1010.4 6.0 N 9.8 1.5 1.3
14:53 7.4 4.0 79 1010.5 10.7 N 10.7 1.5 1.3
14:54 7.4 3.8 78 1010.5 4.5 SSW 10.7 1.5 1.4
14:55 7.4 4.0 79 1010.5 5.4 SW 10.7 1.5 1.4
14:56 7.4 4.0 79 1010.3 7.6 NE 10.7 1.5 1.4
14:57 7.4 4.0 79 1010.4 3.1 S 10.7 0.8 1.4
14:59 7.4 4.0 79 1010.4 5.4 NE 10.7 0.8 1.4
15:00 7.4 4.0 79 1010.4 6.9 NW 10.7 0.8 1.4
15:01 7.4 4.0 79 1010.3 6.9 NW 10.7 0.8 1.5
15:02 7.4 4.0 79 1010.4 5.4 NE 10.7 1.5 1.5
15:03 7.4 4.0 79 1010.5 4.5 NW 10.7 0.8 1.5
15:04 7.4 4.0 79 1010.4 8.3 S 8.3 0.8 1.5
15:05 7.4 4.2 80 1010.4 7.6 NE 8.3 1.5 1.6
15:06 7.4 4.2 80 1010.5 6.0 NW 8.3 1.5 1.6
15:07 7.4 4.2 80 1010.4 5.4 NW 8.3 0.8 1.6
15:08 7.4 4.2 80 1010.4 7.6 N 8.3 0.8 1.6
15:09 7.4 4.2 80 1010.4 5.4 NE 8.3 1.5 1.6
15:10 7.4 4.2 80 1010.3 6.9 NE 8.3 0.8 1.6
15:11 7.4 4.2 80 1010.2 10.7 N 10.7 0.8 1.6
15:12 7.3 4.1 80 1010.1 8.3 NE 10.7 1.5 1.7
15:13 7.3 4.1 80 1010.2 7.6 NW 10.7 1.5 1.7
15:14 7.3 4.1 80 1010.3 4.5 SW 10.7 1.5 1.8
15:15 7.3 4.1 80 1010.1 7.6 NW 10.7 1.5 1.8
15:16 7.3 4.1 80 1010.2 7.6 S 10.7 1.5 1.8
15:17 7.3 4.3 81 1010.2 3.1 SE 10.7 1.5 1.8
15:19 7.3 4.3 81 1010.3 6.0 NW 10.7 0.8 1.8
15:20 7.3 4.3 81 1010.2 3.8 N 8.3 0.8 1.9
15:21 7.3 4.3 81 1010.2 3.8 N 8.3 1.5 1.9
15:22 7.3 4.3 81 1010.1 3.8 SW 8.3 1.5 2.0
15:23 7.4 4.4 81 1010.3 8.3 W 8.3 2.3 2.0
15:24 7.4 4.4 81 1010.3 6.0 W 8.3 2.3 2.0
15:25 7.4 4.4 81 1010.4 6.9 NW 8.3 3.0 2.1
15:26 7.4 4.4 81 1010.4 5.4 NE 8.3 2.3 2.1
15:27 7.4 4.5 82 1010.5 8.3 NE 8.3 2.3 2.1
15:28 7.4 4.5 82 1010.4 8.3 SW 8.3 1.5 2.1
15:29 7.3 4.4 82 1010.6 6.0 W 8.3 1.5 2.2
15:30 7.3 4.4 82 1010.5 8.3 N 8.3 1.5 2.2
15:31 7.3 4.4 82 1010.5 7.6 NE 8.3 1.5 2.2
15:32 7.3 4.4 82 1010.5 9.8 WNW 11.4 0.8 2.3
15:34 7.3 4.4 82 1010.5 3.8 SE 11.4 1.5 2.3
15:35 7.3 4.4 82 1010.5 8.3 N 11.4 0.8 2.3
15:36 7.3 4.4 82 1010.6 12.1 NW 12.1 1.5 2.3
15:37 7.3 4.4 82 1010.5 5.4 NE 12.1 1.5 2.3
15:38 7.2 4.3 82 1010.5 7.6 S 12.1 1.5 2.4
15:39 7.2 4.3 82 1010.5 5.4 N 12.1 1.5 2.4
15:40 7.2 4.3 82 1010.4 6.9 NW 12.1 1.5 2.4
15:41 7.2 4.3 82 1010.4 4.5 SSW 12.1 0.8 2.4
15:42 7.2 4.3 82 1010.4 6.9 E 12.1 0.8 2.4
15:43 7.2 4.5 83 1010.4 3.8 N 12.1 0.0 2.5
15:44 7.2 4.5 83 1010.3 5.4 NW 12.1 0.8 2.5
15:45 7.2 4.5 83 1010.5 5.4 E 12.1 0.8 2.5
15:46 7.3 4.6 83 1010.4 4.5 SW 7.6 0.8 2.5
15:47 7.3 4.6 83 1010.4 5.4 E 7.6 0.8 2.5
15:49 7.3 4.6 83 1010.4 6.9 S 8.3 0.8 2.5
15:50 7.3 4.6 83 1010.3 5.4 ENE 8.3 0.8 2.5
15:51 7.3 4.6 83 1010.3 5.4 ENE 8.3 0.8 2.5
15:52 7.3 4.6 83 1010.3 3.8 SW 9.2 0.8 2.5
15:53 7.3 4.6 83 1010.3 6.9 NW 9.2 0.0 2.5
15:54 7.3 4.6 83 1010.5 5.4 ESE 9.2 0.0 2.5
15:55 7.3 4.8 84 1010.3 6.0 E 9.2 0.0 2.6
15:56 7.3 4.8 84 1010.3 5.4 W 9.2 0.8 2.6
15:57 7.3 4.8 84 1010.3 3.8 SW 9.2 0.8 2.6
15:58 7.3 4.8 84 1010.5 3.1 SW 9.2 0.8 2.6
15:59 7.3 4.8 84 1010.3 6.0 NW 9.2 0.8 2.6
16:00 7.3 4.8 84 1010.2 5.4 N 9.2 0.8 2.6
16:01 7.4 4.9 84 1010.3 4.5 WNW 6.9 0.0 2.6
16:02 7.4 4.9 84 1010.2 3.8 NW 6.9 0.8 2.6
16:04 7.4 4.9 84 1010.2 5.4 NW 6.9 0.8 2.6
16:05 7.4 4.9 84 1010.2 5.4 S 6.9 0.8 2.6
16:06 7.4 4.9 84 1010.2 5.4 S 6.9 0.8 2.6
16:07 7.4 5.0 85 1010.2 8.3 SW 8.3 0.0 2.6
16:08 7.4 5.0 85 1010.3 6.0 NW 8.3 0.0 2.7
16:09 7.4 4.9 84 1010.2 6.9 NW 8.3 0.8 2.7
16:10 7.4 4.9 84 1010.3 5.4 SE 8.3 0.8 2.7
16:11 7.4 5.0 85 1010.3 6.0 NNW 10.7 0.8 2.8
16:12 7.4 5.0 85 1010.3 5.4 SSW 10.7 1.5 2.8
16:13 7.4 5.0 85 1010.1 5.4 NW 10.7 1.5 2.8
16:14 7.3 4.9 85 1010.2 10.7 SE 10.7 0.8 2.8
16:15 7.4 5.0 85 1010.2 6.0 S 10.7 0.8 2.8
16:16 7.3 4.9 85 1010.3 8.3 NW 10.7 0.8 2.8
16:18 7.3 4.9 85 1010.5 9.8 S 10.7 0.8 2.8
16:19 7.3 4.9 85 1010.4 6.9 SW 10.7 0.8 2.8
16:20 7.3 4.9 85 1010.3 9.2 SE 10.7 0.8 2.8
16:21 7.3 4.9 85 1010.2 3.8 SE 10.7 0.8 2.8
16:22 7.3 4.9 85 1010.3 7.6 S 10.7 0.8 2.8
16:23 7.3 4.9 85 1010.3 6.0 SW 10.7 0.0 2.9
16:24 7.3 4.9 85 1010.1 6.0 SE 10.7 0.8 2.9
16:25 7.3 4.9 85 1010.0 5.4 SE 9.8 0.8 2.9
16:26 7.3 4.9 85 1010.1 10.7 E 10.7 0.8 2.9
16:27 7.3 4.9 85 1010.1 8.3 E 10.7 0.8 2.9
16:28 7.3 4.9 85 1010.2 4.5 NW 10.7 0.8 3.0
16:29 7.3 4.9 85 1010.1 6.9 NW 10.7 0.8 3.0
16:30 7.3 4.9 85 1010.0 13.6 NW 13.6 0.8 3.0
16:31 7.3 4.9 85 1010.0 6.0 NW 13.6 0.8 3.0
16:32 7.3 4.9 85 1010.0 4.5 S 13.6 0.8 3.0
16:34 7.3 5.1 86 1010.2 5.4 WNW 13.6 0.8 3.0
16:35 7.3 5.1 86 1010.2 8.3 NNE 13.6 0.8 3.0
16:36 7.3 5.1 86 1010.2 8.3 NNE 13.6 0.8 3.0
16:37 7.3 5.1 86 1010.1 7.6 S 13.6 0.8 3.0
16:38 7.3 5.1 86 1010.0 4.5 NW 13.6 0.0 3.0
16:39 7.3 5.1 86 1010.1 3.1 NW 13.6 0.8 3.1
16:40 7.3 5.1 86 1010.0 6.9 S 13.6 0.8 3.1
16:41 7.3 5.1 86 1010.1 3.8 NW 9.2 0.8 3.1
16:42 7.3 5.1 86 1010.1 3.1 S 9.2 1.5 3.1
16:43 7.3 5.1 86 1010.1 5.4 SE 9.2 1.5 3.1
16:44 7.3 5.1 86 1010.1 4.5 N 9.2 0.8 3.1
16:45 7.3 5.1 86 1010.2 6.9 SE 9.2 0.8 3.2
16:46 7.3 5.1 86 1010.0 8.3 N 9.2 1.5 3.2
16:47 7.3 5.1 86 1010.2 5.4 N 9.2 0.8 3.2
16:48 7.3 5.1 86 1010.1 6.0 NE 9.2 0.8 3.2
16:49 7.3 5.1 86 1010.1 3.8 E 8.3 1.5 3.3
16:51 7.3 5.1 86 1010.0 5.4 NE 8.3 0.8 3.3
16:52 7.3 5.1 86 1010.0 6.0 W 8.3 0.8 3.3
16:53 7.3 5.1 86 1009.9 6.9 W 8.3 1.5 3.3
16:54 7.3 5.1 86 1010.2 6.0 ENE 8.3 0.8 3.3
16:55 7.3 5.1 86 1009.9 6.9 NE 8.3 0.8 3.4
16:56 7.3 5.1 86 1010.1 5.4 NW 8.3 1.5 3.4
16:57 7.3 5.1 86 1010.1 3.8 NW 6.9 1.5 3.4
16:58 7.4 5.2 86 1010.0 6.0 N 6.9 0.8 3.4
16:59 7.4 5.4 87 1010.0 5.4 N 7.6 1.5 3.5
17:00 7.4 5.4 87 1010.1 6.9 NW 7.6 1.5 3.5
17:01 7.4 5.4 87 1010.3 6.9 NW 7.6 0.8 3.5
17:02 7.4 5.4 87 1010.3 6.9 NW 7.6 0.8 3.5
17:03 7.4 5.4 87 1010.3 6.9 NW 7.6 0.8 3.5
17:04 7.4 5.4 87 1010.3 6.9 NW 7.6 0.0 3.5
17:05 7.3 5.3 87 1010.3 4.5 S 7.6 0.0 3.6
17:06 7.3 5.3 87 1010.1 3.8 SW 7.6 1.5 3.6
17:07 7.3 5.3 87 1010.2 10.7 SE 10.7 1.5 3.7
17:09 7.2 5.2 87 1010.3 9.2 WNW 10.7 2.3 3.7
17:10 7.2 5.2 87 1010.1 6.9 ESE 10.7 2.3 3.7
17:11 7.2 5.2 87 1010.3 10.7 ESE 10.7 0.8 3.7
17:12 6.5 4.5 87 1010.2 6.0 SW 10.7 1.5 3.7
17:13 7.2 5.2 87 1010.4 6.0 NW 10.7 0.8 3.7
17:14 7.2 5.2 87 1010.1 5.4 E 10.7 1.5 3.8
17:15 7.2 5.2 87 1010.3 6.9 NW 10.7 1.5 3.8
17:16 7.2 5.2 87 1010.2 5.4 SE 10.7 1.5 3.8
17:17 7.2 5.2 87 1010.3 3.8 N 10.7 1.5 3.8
17:18 7.2 5.2 87 1010.2 5.4 NW 10.7 1.5 3.8
17:19 7.2 5.2 87 1010.2 3.8 NW 10.7 1.5 3.9
17:20 7.2 5.2 87 1010.2 5.4 NW 10.7 1.5 3.9
17:21 7.2 5.2 87 1010.1 3.8 SW 7.6 1.5 3.9
17:22 7.2 5.2 87 1010.2 5.4 S 7.6 0.8 4.0
17:24 7.2 5.2 87 1010.0 4.5 W 7.6 0.8 4.0
17:25 7.2 5.2 87 1010.1 3.8 N 6.0 1.5 4.0
17:26 7.2 5.2 87 1010.1 3.8 N 6.0 1.5 4.0
17:27 7.2 5.2 87 1010.0 3.8 NW 6.0 2.3 4.1
17:28 7.3 5.3 87 1010.2 6.0 SE 6.0 1.5 4.1
17:29 7.3 5.3 87 1010.1 5.4 N 6.0 1.5 4.2
17:30 7.3 5.3 87 1010.1 5.4 SE 6.0 1.5 4.2
17:31 7.3 5.3 87 1010.0 3.8 NE 6.0 1.5 4.2
17:32 7.2 5.2 87 1010.0 5.4 SW 6.0 0.8 4.2
17:33 7.2 5.2 87 1010.2 3.1 NW 6.0 1.5 4.3
17:34 7.2 5.2 87 1010.0 5.4 NW 6.0 2.3 4.3
17:35 7.2 5.2 87 1010.1 4.5 SE 6.0 1.5 4.3
17:36 7.2 5.3 88 1010.0 4.5 N 6.0 1.5 4.3
17:37 7.2 5.2 87 1010.0 6.0 NE 6.0 1.5 4.3
17:40 7.2 5.3 88 1010.0 5.4 N 6.0 1.5 4.4
17:41 7.2 5.3 88 1009.9 6.9 W 6.9 1.5 4.4
17:42 7.2 5.2 87 1009.9 6.0 SE 6.9 1.5 4.4
17:43 7.2 5.3 88 1010.0 3.1 NW 6.9 0.8 4.5
17:44 7.2 5.3 88 1010.0 3.8 SE 6.9 0.8 4.5
17:45 7.2 5.3 88 1009.9 6.9 NW 6.9 0.8 4.5
17:46 7.2 5.3 88 1009.9 3.8 NW 6.9 1.5 4.5
17:47 7.2 5.3 88 1010.0 4.5 NW 6.9 1.5 4.5
17:48 7.2 5.3 88 1010.0 4.5 NW 6.9 1.5 4.5
17:49 7.3 5.4 88 1009.9 4.5 SE 6.9 1.5 4.5
17:50 7.3 5.4 88 1010.1 6.0 S 6.9 1.5 4.6
17:51 7.3 5.4 88 1010.1 5.4 NW 6.9 1.5 4.6
17:52 7.3 5.4 88 1009.9 6.9 NW 6.9 0.8 4.6
17:54 7.3 5.4 88 1009.9 6.9 NW 6.9 1.5 4.7
17:55 7.3 5.4 88 1009.8 4.5 E 6.9 0.8 4.7
17:56 7.3 5.4 88 1010.1 3.8 N 6.9 1.5 4.7
17:57 7.3 5.4 88 1010.0 5.4 N 6.9 1.5 4.7
17:58 7.3 5.4 88 1009.8 5.4 N 6.9 0.8 4.7
17:59 7.3 5.4 88 1009.8 4.5 E 6.9 1.5 4.8
18:00 7.3 5.4 88 1009.9 7.6 S 7.6 1.5 4.8
18:01 7.3 5.4 88 1009.8 7.6 S 7.6 0.8 4.8
18:02 7.3 5.4 88 1010.0 4.5 N 7.6 0.8 4.8
18:03 7.3 5.4 88 1009.8 5.4 E 7.6 0.8 4.8
18:04 7.3 5.4 88 1009.9 2.2 E 7.6 0.8 4.9
18:05 7.3 5.4 88 1009.9 6.0 E 7.6 0.8 4.9
18:06 7.3 5.4 88 1010.0 5.4 WSW 7.6 0.8 4.9
18:07 7.3 5.4 88 1009.9 4.5 N 7.6 1.5 4.9
18:09 7.3 5.4 88 1010.0 4.5 N 7.6 0.8 4.9
18:10 7.3 5.4 88 1010.0 3.8 N 7.6 0.8 4.9
18:11 7.3 5.4 88 1010.0 5.4 SE 7.6 1.5 5.0
18:12 7.3 5.4 88 1010.0 8.3 SE 8.3 0.8 5.0
18:13 7.3 5.6 89 1010.0 5.4 N 8.3 0.8 5.0
18:14 7.3 5.4 88 1009.8 3.8 NW 8.3 0.8 5.0
18:15 7.3 5.6 89 1009.8 5.4 SW 8.3 1.5 5.0
18:16 7.3 5.6 89 1010.0 7.6 NNE 8.3 0.8 5.0
18:17 7.3 5.6 89 1009.9 7.6 WNW 8.3 0.8 5.0
18:18 7.3 5.6 89 1009.9 5.4 NE 8.3 0.8 5.0
18:19 7.3 5.6 89 1010.0 6.0 S 8.3 0.8 5.0
18:20 7.3 5.6 89 1010.0 4.5 E 8.3 0.0 5.0
18:21 7.3 5.6 89 1009.8 3.8 N 8.3 0.8 5.1
18:23 7.3 5.6 89 1009.9 3.1 W 7.6 0.8 5.1
18:24 7.3 5.6 89 1009.9 3.8 NE 7.6 0.8 5.1
18:25 7.3 5.6 89 1009.8 3.8 N 7.6 1.5 5.2
18:26 7.3 5.6 89 1009.7 5.4 SE 7.6 0.8 5.2
18:27 7.4 5.7 89 1009.8 6.0 S 7.6 0.8 5.2
18:28 7.4 5.7 89 1009.7 3.8 NE 6.0 0.8 5.2
18:29 7.4 5.7 89 1009.7 6.0 NW 6.0 0.8 5.2
18:30 7.4 5.7 89 1009.7 4.5 NW 6.0 0.0 5.2
18:31 7.4 5.7 89 1009.7 5.4 N 6.0 0.8 5.2
18:32 7.4 5.7 89 1009.7 3.8 NW 6.0 0.8 5.2
18:33 7.4 5.7 89 1009.9 3.1 WNW 6.0 0.8 5.2
18:34 7.4 5.7 89 1009.9 7.6 NW 7.6 0.8 5.2
18:35 7.4 5.7 89 1010.0 8.3 NE 8.3 0.8 5.2
18:36 7.4 5.7 89 1009.9 3.8 N 8.3 0.8 5.3
18:37 7.4 5.7 89 1010.0 9.2 NE 9.2 0.8 5.3
18:38 7.4 5.7 89 1010.0 3.8 E 9.2 0.8 5.3
18:39 7.4 5.7 89 1009.9 6.0 NE 13.0 0.8 5.3
18:40 7.4 5.7 89 1010.0 4.5 E 13.0 0.8 5.3
18:41 7.4 5.7 89 1010.0 6.0 N 13.0 0.0 5.3
18:42 7.4 5.7 89 1010.0 3.8 E 13.0 0.0 5.3
18:43 7.4 5.7 89 1010.0 7.6 NNW 13.0 0.0 5.3
18:44 7.4 5.7 89 1010.2 3.8 N 13.0 0.0 5.3
18:45 7.4 5.7 89 1010.1 4.5 SE 13.0 0.0 5.3
18:46 7.4 5.7 89 1010.0 6.9 N 13.0 0.0 5.3
18:47 7.4 5.7 89 1010.0 6.0 N 13.0 0.8 5.4
18:48 7.4 5.7 89 1009.8 6.0 WSW 13.0 0.8 5.4
18:49 7.4 5.9 90 1009.9 3.1 SW 7.6 0.8 5.4
18:50 7.5 5.8 89 1009.9 5.4 SW 7.6 0.8 5.4
18:51 7.5 5.8 89 1010.0 5.4 NE 7.6 0.8 5.4
18:52 7.5 5.8 89 1010.0 5.4 E 7.6 0.0 5.4
18:53 7.5 6.0 90 1010.0 3.1 NE 7.6 0.0 5.4
18:54 7.5 5.8 89 1009.8 5.4 NW 7.6 0.0 5.4
18:55 7.4 5.9 90 1009.9 6.0 NE 7.6 0.0 5.4
18:56 7.5 5.8 89 1009.9 5.4 SE 7.6 0.8 5.4
18:57 7.4 5.9 90 1010.0 6.0 NE 7.6 0.8 5.4
18:58 7.4 5.9 90 1010.0 10.7 E 10.7 0.8 5.4
18:59 7.4 5.9 90 1009.9 4.5 N 10.7 0.8 5.4
19:00 7.4 5.9 90 1010.0 3.8 N 10.7 0.8 5.4
19:01 7.4 5.9 90 1009.9 3.8 N 10.7 0.0 5.4
19:02 7.4 5.9 90 1009.9 3.8 N 10.7 0.0 5.4
19:03 7.4 5.9 90 1010.0 3.8 N 10.7 0.0 5.4
19:04 7.4 5.9 90 1010.0 3.8 N 10.7 0.0 5.4
19:05 7.4 5.9 90 1009.9 3.8 N 10.7 0.0 5.4
19:06 7.4 5.9 90 1009.9 4.5 NW 10.7 0.8 5.5
19:07 7.4 5.9 90 1010.0 4.5 NW 10.7 0.8 5.5
19:08 7.4 5.9 90 1009.9 4.5 SW 10.7 0.8 5.5
19:09 7.3 5.8 90 1010.1 6.9 SW 6.9 0.8 5.5
19:10 7.3 5.8 90 1010.1 6.0 N 6.9 0.8 5.5
19:11 7.4 5.9 90 1010.0 8.3 N 8.3 0.0 5.5
19:12 7.3 5.8 90 1010.2 6.9 NE 8.3 0.0 5.5
19:13 7.3 5.8 90 1010.1 9.2 NE 9.2 0.0 5.5
19:14 7.3 5.8 90 1010.0 5.4 SE 9.2 0.0 5.5
19:15 7.3 5.8 90 1010.1 8.3 NW 9.2 0.0 5.5
19:16 7.3 5.8 90 1010.2 6.0 E 9.2 0.0 5.5
19:17 7.3 5.8 90 1010.2 5.4 E 9.2 0.0 5.5
19:18 7.3 5.8 90 1010.3 5.4 E 9.2 0.0 5.5
19:19 7.2 5.7 90 1010.3 6.0 S 9.2 0.8 5.5
19:20 7.2 5.7 90 1010.2 6.0 S 9.2 0.8 5.5
19:21 7.2 5.7 90 1010.3 4.5 N 9.2 0.8 5.5
19:22 7.2 5.7 90 1010.3 4.5 NE 9.2 0.8 5.5
19:23 7.2 5.7 90 1010.4 5.4 S 9.2 0.8 5.5
19:24 7.2 5.7 90 1010.4 5.4 NW 8.3 0.0 5.5
19:25 7.2 5.7 90 1010.5 4.5 E 8.3 0.0 5.5
19:26 7.2 5.7 90 1010.3 8.3 SW 8.3 0.0 5.5
19:27 7.2 5.7 90 1010.4 9.2 SE 10.7 0.0 5.5
19:28 7.2 5.7 90 1010.4 9.8 SE 10.7 0.0 5.5
19:29 7.2 5.7 90 1010.5 6.0 WNW 10.7 0.0 5.5
19:30 7.1 5.6 90 1010.5 6.0 SE 10.7 0.8 5.6
19:31 7.1 5.6 90 1010.5 8.3 E 10.7 0.8 5.6
19:32 7.1 5.6 90 1010.4 5.4 W 10.7 0.8 5.7
19:33 7.1 5.6 90 1010.4 4.5 W 10.7 1.5 5.7
19:34 7.1 5.6 90 1010.5 3.1 N 10.7 1.5 5.7
19:35 7.1 5.6 90 1010.3 6.0 W 10.7 0.8 5.7
19:36 7.1 5.6 90 1010.2 4.5 N 10.7 0.8 5.7
19:37 7.1 5.6 90 1010.4 3.8 S 10.7 1.5 5.7
19:38 7.1 5.6 90 1010.2 8.3 NW 10.7 0.8 5.7
19:39 7.1 5.6 90 1010.3 9.2 N 10.7 0.8 5.7
19:41 7.2 5.7 90 1010.2 6.9 SE 9.2 1.5 5.8
19:42 7.2 5.7 90 1010.3 4.5 ENE 9.2 0.8 5.8
19:43 7.2 5.7 90 1010.2 5.4 E 9.2 0.8 5.8
19:44 7.2 5.7 90 1010.3 3.1 SE 9.2 0.8 5.8
19:45 7.2 5.7 90 1010.3 3.8 SW 9.2 0.8 5.8
19:46 7.2 5.7 90 1010.4 5.4 N 9.2 0.0 5.8
19:47 7.2 5.7 90 1010.4 6.0 SE 9.8 0.8 5.9
19:48 7.2 5.7 90 1010.4 6.0 SE 9.8 0.8 5.9
19:49 7.2 5.7 90 1010.3 5.4 SE 9.8 0.8 5.9
19:50 7.3 5.9 91 1010.4 3.1 NE 9.8 1.5 5.9
19:51 7.2 5.8 91 1010.3 5.4 N 9.8 1.5 5.9
19:52 7.3 5.8 90 1010.4 5.4 SE 9.8 0.8 5.9
19:53 7.3 5.9 91 1010.4 3.1 N 9.8 0.8 5.9
19:54 7.3 5.9 91 1010.3 4.5 N 9.8 0.8 5.9
19:55 7.3 5.8 90 1010.5 3.8 SE 9.8 0.0 5.9
19:56 7.3 5.9 91 1010.4 3.1 NE 9.8 0.8 6.0
19:57 7.3 5.9 91 1010.5 4.5 SE 6.9 0.8 6.0
19:58 7.3 5.9 91 1010.5 5.4 N 6.9 0.8 6.0
19:59 7.3 5.9 91 1010.4 9.2 NE 9.2 0.8 6.0
20:00 7.3 5.9 91 1010.5 3.8 N 9.2 0.8 6.0
20:01 7.3 5.9 91 1010.5 3.8 N 9.2 0.0 6.0
20:02 7.3 5.9 91 1010.6 4.5 N 9.2 0.8 6.0
20:03 7.3 5.9 91 1010.6 5.4 E 9.2 0.8 6.0
20:04 7.3 5.9 91 1010.6 5.4 E 9.2 0.8 6.0
20:05 7.3 5.9 91 1010.6 4.5 E 9.2 0.8 6.0
20:06 7.3 5.9 91 1010.6 5.4 E 9.2 0.8 6.0
20:07 7.3 5.9 91 1010.7 11.4 E 11.4 0.0 6.0
20:08 7.4 6.0 91 1010.7 8.3 E 11.4 0.0 6.0
20:09 7.4 6.0 91 1010.8 9.2 SE 11.4 0.0 6.0
20:10 7.4 6.0 91 1010.9 10.7 SE 11.4 0.0 6.0
20:11 7.4 6.0 91 1010.7 9.2 SW 11.4 0.8 6.1
20:12 7.4 6.0 91 1010.8 7.6 E 11.4 0.8 6.1
20:13 7.4 6.0 91 1010.7 8.3 SE 11.4 0.8 6.1
20:14 7.4 6.0 91 1010.8 6.0 SE 11.4 0.8 6.1
20:15 7.4 6.0 91 1010.8 10.7 SE 11.4 0.8 6.1
20:16 7.4 6.0 91 1010.9 8.3 W 11.4 0.0 6.1
20:17 7.4 6.0 91 1010.8 8.3 SE 10.7 0.0 6.1
20:18 7.4 6.0 91 1011.0 8.3 N 10.7 0.0 6.1
20:19 7.4 6.0 91 1011.0 8.3 N 10.7 0.0 6.1
20:20 7.4 6.0 91 1010.9 5.4 NE 10.7 0.0 6.1
20:21 7.4 6.0 91 1010.9 6.0 ESE 10.7 0.0 6.1
20:22 7.4 6.0 91 1011.0 7.6 NE 10.7 0.0 6.1
20:23 7.3 5.9 91 1010.9 6.0 NE 10.7 0.0 6.1
20:24 7.3 5.9 91 1010.9 7.6 E 10.7 0.0 6.1
20:25 7.3 5.9 91 1011.0 8.3 NE 10.7 0.0 6.1
20:26 7.3 5.9 91 1010.9 7.6 NE 9.8 0.0 6.1
20:27 7.3 5.9 91 1010.9 5.4 E 9.8 0.0 6.1
20:28 7.3 5.9 91 1010.8 6.9 SE 9.8 0.0 6.2
20:29 7.3 5.9 91 1011.0 6.0 SE 9.8 0.8 6.2
20:30 7.3 5.9 91 1011.0 5.4 S 9.8 0.8 6.2
20:31 7.3 5.9 91 1011.0 4.5 N 9.8 0.8 6.2
20:32 7.3 5.9 91 1011.0 4.5 NNE 9.8 0.8 6.2
20:33 7.3 5.9 91 1011.0 4.5 E 9.8 0.8 6.2
20:34 7.3 5.9 91 1011.0 4.5 SW 9.8 0.0 6.2
20:35 7.3 5.9 91 1011.1 6.0 W 9.8 0.0 6.2
20:36 7.3 5.9 91 1011.1 6.9 SE 9.8 0.0 6.2
20:37 7.3 5.9 91 1011.2 5.4 SE 7.6 0.0 6.2
20:38 7.3 6.1 92 1011.1 4.5 W 7.6 0.8 6.2
20:39 7.3 6.1 92 1011.1 9.8 WNW 9.8 0.8 6.2
20:40 7.3 6.1 92 1011.2 6.9 SE 9.8 0.8 6.2
20:41 7.3 5.9 91 1011.4 12.1 SE 12.1 0.8 6.2
20:42 7.3 6.1 92 1011.2 7.6 SE 12.1 0.8 6.2
20:43 7.2 6.0 92 1011.2 10.7 SE 12.1 0.0 6.2
20:44 7.2 6.0 92 1011.4 9.8 NE 12.1 0.0 6.2
20:45 7.2 5.8 91 1011.3 9.8 SE 12.1 0.0 6.3
20:46 7.2 6.0 92 1011.5 7.6 N 12.1 0.8 6.3
20:47 7.1 5.7 91 1011.4 6.0 SE 12.1 0.8 6.3
20:48 7.1 5.7 91 1011.5 7.6 SE 12.1 0.8 6.3
20:49 7.1 5.7 91 1011.3 9.2 NE 12.1 0.8 6.3
20:50 7.1 5.9 92 1011.3 6.9 NW 12.1 0.8 6.3
20:51 7.1 5.7 91 1011.3 9.2 ESE 10.7 0.0 6.3
20:52 7.1 5.7 91 1011.3 9.2 ESE 10.7 0.0 6.3
20:53 7.0 5.8 92 1011.3 13.6 E 13.6 0.0 6.3
20:54 7.0 5.8 92 1011.4 7.6 SE 13.6 0.0 6.3
20:55 7.0 5.6 91 1011.4 9.2 S 13.6 0.0 6.3
20:56 7.0 5.8 92 1011.2 6.9 SE 13.6 0.0 6.3
20:57 7.0 5.8 92 1011.4 5.4 SE 13.6 0.0 6.3
20:58 7.0 5.6 91 1011.4 9.8 SE 13.6 0.0 6.3
20:59 7.0 5.8 92 1011.5 6.0 E 13.6 0.0 6.3
21:00 7.0 5.8 92 1011.3 6.0 NE 13.6 0.8 6.4
21:01 7.0 5.8 92 1011.3 6.9 ESE 13.6 0.8 6.4
21:02 7.0 5.8 92 1011.4 6.9 ESE 13.6 0.8 6.4
21:03 7.0 5.8 92 1011.4 6.9 ESE 9.8 0.8 6.4
21:04 7.0 5.8 92 1011.4 6.9 ESE 9.8 0.8 6.4
21:05 7.0 5.8 92 1011.3 6.9 ESE 9.8 0.0 6.4
21:06 7.0 5.8 92 1011.5 7.6 NE 9.8 0.0 6.4
21:07 7.0 5.8 92 1011.4 6.0 NE 9.8 0.0 6.4
21:08 7.1 5.9 92 1011.5 2.2 SSW 7.6 0.0 6.4
21:09 7.1 5.9 92 1011.4 2.2 NE 7.6 0.0 6.4
21:10 7.1 5.9 92 1011.5 4.5 E 7.6 0.0 6.4
21:11 7.1 5.9 92 1011.5 3.1 N 7.6 0.0 6.4
21:12 7.1 5.9 92 1011.4 5.4 SE 7.6 0.0 6.4
21:13 7.1 5.9 92 1011.5 5.4 S 7.6 0.0 6.4
21:14 7.1 5.9 92 1011.4 6.0 S 7.6 0.0 6.4
21:15 7.1 5.9 92 1011.2 4.5 SE 7.6 0.0 6.4
21:16 7.1 5.9 92 1011.3 6.9 N 7.6 0.0 6.4
21:17 7.1 5.9 92 1011.3 3.8 SE 6.9 0.0 6.4
21:18 7.1 5.9 92 1011.4 3.8 SE 6.9 0.0 6.4
21:19 7.1 5.9 92 1011.4 4.5 S 6.9 0.0 6.4
21:20 7.1 5.9 92 1011.4 4.5 NE 6.9 0.0 6.4
21:21 7.2 6.0 92 1011.4 5.4 SE 6.9 0.0 6.4
21:22 7.2 6.0 92 1011.3 3.1 E 6.9 0.8 6.4
21:23 7.2 6.0 92 1011.5 3.8 N 6.9 0.8 6.4
21:24 7.2 6.0 92 1011.3 3.8 N 6.9 0.8 6.4
21:25 7.2 6.0 92 1011.3 5.4 NW 6.9 0.8 6.4
21:26 7.2 6.0 92 1011.5 1.6 NE 5.4 0.8 6.4
21:27 7.2 6.0 92 1011.4 6.0 S 6.0 0.0 6.4
21:28 7.2 6.0 92 1011.4 4.5 W 6.0 0.0 6.4
21:29 7.3 6.1 92 1011.4 3.1 E 6.0 0.0 6.4
21:30 7.3 6.1 92 1011.5 6.0 NW 6.0 0.0 6.4
21:31 7.3 6.1 92 1011.4 1.6 N 6.0 0.0 6.4
21:32 7.3 6.1 92 1011.4 1.6 N 6.0 0.0 6.4
21:33 7.3 6.1 92 1011.5 5.4 NW 6.0 0.8 6.5
21:34 7.3 6.1 92 1011.4 3.1 W 6.0 0.8 6.5
21:35 7.3 6.1 92 1011.4 3.1 N 6.0 0.8 6.5
21:36 7.3 6.1 92 1011.5 4.5 E 6.0 0.8 6.5
21:37 7.3 6.1 92 1011.5 4.5 S 6.0 0.8 6.5
21:38 7.3 6.1 92 1011.4 7.6 ENE 7.6 0.0 6.5
21:39 7.3 6.1 92 1011.5 6.0 SSE 7.6 0.0 6.5
21:40 7.3 6.1 92 1011.5 3.8 NE 7.6 0.0 6.5
21:41 7.3 6.1 92 1011.5 4.5 N 7.6 0.0 6.5
21:42 7.3 6.1 92 1011.5 3.8 E 7.6 0.0 6.5
21:43 7.3 6.1 92 1011.6 3.1 SE 7.6 0.0 6.5
21:44 7.2 6.0 92 1011.6 3.1 SW 7.6 0.0 6.5
21:45 7.2 6.0 92 1011.6 6.0 E 7.6 0.0 6.5
21:46 7.2 6.0 92 1011.4 3.8 NW 7.6 0.8 6.6
21:47 7.2 6.1 93 1011.6 3.8 NE 7.6 0.8 6.6
21:48 7.3 6.2 93 1011.5 2.2 NE 6.0 0.8 6.6
21:49 7.2 6.0 92 1011.5 3.1 NW 6.0 0.8 6.6
21:50 7.3 6.2 93 1011.4 3.8 SW 6.0 0.8 6.6
21:51 7.3 6.2 93 1011.4 3.8 SW 6.0 0.0 6.6
21:52 7.3 6.2 93 1011.5 3.1 N 6.0 0.0 6.6
21:53 7.3 6.2 93 1011.5 3.1 NW 6.0 0.0 6.6
21:54 7.2 6.1 93 1011.5 4.5 NE 6.0 0.0 6.6
21:55 7.3 6.2 93 1011.6 3.8 N 6.0 0.0 6.6
21:56 7.2 6.1 93 1011.6 3.8 E 6.0 0.0 6.6
21:57 7.3 6.2 93 1011.6 5.4 E 6.0 0.0 6.6
21:58 7.3 6.2 93 1011.6 5.4 E 6.0 0.0 6.6
21:59 7.3 6.2 93 1011.6 5.4 ESE 6.0 0.0 6.6
22:00 7.3 6.2 93 1011.7 3.8 N 6.0 0.0 6.6
22:01 7.3 6.2 93 1011.6 5.4 SE 5.4 0.0 6.6
22:02 7.3 6.2 93 1011.6 5.4 SE 5.4 0.0 6.6
22:03 7.3 6.2 93 1011.7 5.4 SE 5.4 0.0 6.6
22:04 7.3 6.2 93 1011.7 5.4 SE 5.4 0.0 6.6
22:05 7.3 6.2 93 1011.7 5.4 SE 5.4 0.0 6.6
22:06 7.3 6.2 93 1011.7 7.6 NW 7.6 0.8 6.6
22:07 7.3 6.2 93 1011.8 5.4 NE 7.6 0.8 6.6
22:08 7.3 6.2 93 1011.9 3.8 SE 7.6 0.8 6.6
22:09 7.3 6.2 93 1011.8 7.6 SE 7.6 0.8 6.6
22:10 7.4 6.3 93 1011.9 6.9 E 7.6 0.8 6.6
22:11 7.3 6.2 93 1011.8 2.2 SE 7.6 0.0 6.6
22:12 7.4 6.3 93 1011.7 6.0 SE 7.6 0.0 6.6
22:13 7.4 6.3 93 1011.7 3.1 N 7.6 0.0 6.6
22:14 7.4 6.3 93 1011.7 3.1 N 7.6 0.0 6.6
22:15 7.4 6.3 93 1011.7 3.1 N 7.6 0.0 6.6
22:16 7.4 6.3 93 1011.5 4.5 NW 7.6 0.0 6.6
22:17 7.4 6.3 93 1011.5 4.5 SW 7.6 0.0 6.6
22:18 7.4 6.3 93 1011.7 6.0 NW 7.6 0.0 6.6
22:19 7.4 6.3 93 1011.7 4.5 NW 7.6 0.0 6.6
22:20 7.4 6.3 93 1011.5 4.5 ESE 6.0 0.8 6.7
22:21 7.4 6.3 93 1011.5 6.0 S 6.0 0.8 6.7
22:22 7.4 6.3 93 1011.5 5.4 SE 6.0 0.8 6.7
22:23 7.4 6.3 93 1011.6 3.8 N 6.0 0.8 6.7
22:24 7.4 6.3 93 1011.6 6.9 E 6.9 0.8 6.7
22:25 7.4 6.3 93 1011.4 4.5 E 6.9 0.0 6.7
22:26 7.4 6.3 93 1011.8 4.5 SE 6.9 0.0 6.7
22:27 7.4 6.3 93 1011.6 6.0 SE 6.9 0.0 6.7
22:28 7.4 6.3 93 1011.7 9.2 SE 9.2 0.0 6.7
22:29 7.4 6.3 93 1011.6 9.8 SE 9.8 0.0 6.7
22:30 7.4 6.3 93 1011.6 8.3 NW 9.8 0.0 6.7
22:31 7.4 6.3 93 1011.5 3.1 NE 9.8 0.0 6.7
22:32 7.4 6.3 93 1011.6 8.3 E 9.8 0.0 6.7
22:33 7.4 6.3 93 1011.7 4.5 E 9.8 0.8 6.7
22:34 7.4 6.3 93 1011.7 6.9 SE 9.8 0.8 6.7
22:35 7.4 6.3 93 1011.6 7.6 SE 9.8 0.8 6.7
22:36 7.4 6.3 93 1011.5 6.9 SE 9.8 0.8 6.7
22:37 7.4 6.5 94 1011.6 6.0 N 9.8 0.8 6.7
22:38 7.4 6.5 94 1011.6 6.9 SE 9.8 0.0 6.7
22:39 7.4 6.5 94 1011.7 7.6 N 9.2 0.0 6.7
22:40 7.4 6.5 94 1011.8 6.0 SE 9.2 0.0 6.7
22:41 7.4 6.5 94 1011.5 4.5 N 9.2 0.0 6.7
22:42 7.4 6.5 94 1011.5 6.0 NE 9.2 0.0 6.7
22:43 7.4 6.5 94 1011.6 4.5 NE 9.2 0.0 6.7
22:44 7.4 6.5 94 1011.6 5.4 SE 9.2 0.0 6.7
22:45 7.4 6.5 94 1011.7 4.5 SE 9.2 0.0 6.7
22:46 7.4 6.5 94 1011.5 3.1 SE 9.2 0.0 6.7
22:47 7.4 6.5 94 1011.5 3.8 W 7.6 0.0 6.7
22:48 7.4 6.5 94 1011.5 3.8 W 7.6 0.0 6.7
22:49 7.4 6.5 94 1011.4 6.0 NE 7.6 0.8 6.8
22:50 7.4 6.5 94 1011.5 2.2 NE 6.9 0.8 6.8
22:51 7.4 6.5 94 1011.6 5.4 N 6.9 0.8 6.8
22:52 7.4 6.5 94 1011.5 3.8 E 6.9 0.8 6.8
22:53 7.4 6.5 94 1011.4 3.8 S 6.9 0.8 6.8
22:54 7.4 6.5 94 1011.6 3.1 SE 6.9 0.0 6.8
22:55 7.4 6.5 94 1011.5 6.0 E 6.9 0.0 6.8
22:56 7.5 6.6 94 1011.5 3.8 E 6.9 0.0 6.8
22:57 7.5 6.6 94 1011.5 4.5 NNE 6.9 0.0 6.8
22:58 7.5 6.6 94 1011.5 4.5 SE 6.9 0.0 6.8
22:59 7.5 6.6 94 1011.7 4.5 E 6.0 0.0 6.8
23:00 7.5 6.6 94 1011.5 3.1 S 6.0 0.0 6.8
23:01 7.5 6.6 94 1011.7 6.0 N 6.0 0.8 6.9
23:02 7.5 6.6 94 1011.5 6.0 N 6.0 0.8 6.9
23:03 7.5 6.6 94 1011.5 6.0 N 6.0 0.8 6.9
23:05 7.5 6.6 94 1011.5 6.0 N 6.0 0.8 6.9
23:06 7.5 6.6 94 1011.7 3.1 N 6.0 0.0 6.9
23:07 7.5 6.6 94 1011.4 6.9 SE 6.9 0.0 6.9
23:08 7.5 6.6 94 1011.5 5.4 NE 6.9 0.0 6.9
23:09 7.6 6.7 94 1011.3 5.4 E 6.9 0.0 6.9
23:10 7.6 6.7 94 1011.5 6.9 SE 7.6 0.0 6.9
23:11 7.5 6.6 94 1011.6 4.5 E 7.6 0.0 6.9
23:12 7.5 6.6 94 1011.6 6.0 SE 7.6 0.8 6.9
23:13 7.5 6.6 94 1011.5 6.0 E 7.6 0.8 6.9
23:14 7.6 6.7 94 1011.6 7.6 S 7.6 0.8 6.9
23:15 7.6 6.7 94 1011.7 6.0 E 7.6 0.8 6.9
23:16 7.6 6.7 94 1011.6 6.9 E 7.6 0.8 6.9
23:17 7.6 6.9 95 1011.6 3.1 W 7.6 0.0 6.9
23:18 7.6 6.9 95 1011.6 3.8 N 7.6 0.0 6.9
23:19 7.6 6.7 94 1011.6 6.9 S 7.6 0.0 6.9
23:20 7.6 6.9 95 1011.7 6.9 NE 7.6 0.0 6.9
23:21 7.6 6.7 94 1011.7 4.5 N 7.6 0.0 6.9
23:22 7.6 6.7 94 1011.6 3.8 E 7.6 0.0 6.9
23:23 7.6 6.7 94 1011.7 6.0 SE 7.6 0.0 6.9
23:24 7.6 6.7 94 1011.7 5.4 E 7.6 0.0 6.9
23:25 7.6 6.7 94 1011.7 4.5 E 6.9 0.0 6.9
23:26 7.6 6.7 94 1011.6 6.9 E 6.9 0.0 6.9
23:27 7.6 6.9 95 1011.7 5.4 NE 6.9 0.0 6.9
23:29 7.6 6.9 95 1011.8 5.4 SE 7.6 0.0 6.9
23:30 7.6 6.9 95 1011.8 4.5 NE 7.6 0.0 6.9
23:31 7.6 6.9 95 1011.8 6.0 S 7.6 0.0 6.9
23:32 7.6 6.9 95 1011.9 5.4 E 7.6 0.0 6.9
23:33 7.6 6.9 95 1011.8 5.4 E 7.6 0.0 6.9
23:34 7.6 6.9 95 1011.8 4.5 S 7.6 0.0 6.9
23:35 7.6 6.9 95 1011.8 6.9 NE 7.6 0.0 6.9
23:36 7.6 6.9 95 1011.9 3.8 SW 7.6 0.0 6.9
23:37 7.6 6.9 95 1011.8 3.8 ESE 7.6 0.0 6.9
23:38 7.6 6.9 95 1011.9 3.8 E 7.6 0.0 6.9
23:39 7.6 6.9 95 1011.9 3.8 SE 6.9 0.0 6.9
23:40 7.6 6.9 95 1011.8 3.8 S 6.9 0.0 6.9
23:41 7.6 6.9 95 1011.8 5.4 SE 6.9 0.0 6.9
23:42 7.6 6.9 95 1012.0 3.8 SE 6.9 0.0 6.9
23:43 7.6 6.9 95 1011.9 4.5 SE 6.9 0.8 7.0
23:44 7.6 6.9 95 1012.0 3.8 SE 6.9 0.8 7.0
23:45 7.6 6.9 95 1012.0 3.1 N 6.9 0.8 7.0
23:46 7.6 6.9 95 1012.1 5.4 NW 6.0 0.8 7.0
23:47 7.6 6.9 95 1012.1 4.5 E 6.0 0.8 7.0
23:49 7.6 6.9 95 1012.0 3.1 E 6.0 0.0 7.0
23:50 7.6 6.9 95 1012.0 4.5 E 5.4 0.0 7.0
23:51 7.6 6.9 95 1012.0 6.0 E 6.0 0.0 7.0
23:52 7.6 6.9 95 1012.0 5.4 SE 6.0 0.0 7.0
23:53 7.6 6.9 95 1012.1 3.8 SE 6.0 0.0 7.0
23:54 7.6 6.9 95 1011.9 5.4 E 6.0 0.0 7.0
23:55 7.6 6.9 95 1012.0 4.5 E 6.0 0.0 7.0
23:56 7.6 6.9 95 1011.9 9.2 S 9.2 0.0 7.0
23:57 7.6 6.9 95 1012.0 3.8 SE 9.2 0.0 7.0
23:58 7.6 6.9 95 1011.9 6.0 ESE 9.2 0.0 7.0
23:59 7.6 6.9 95 1012.0 5.4 E 9.2 0.0 7.0

UK - WEATHER STATION TOPSITES - UK World Weather Websites

This is a private weather station, never base important decisions or events on data from this weather station. Although every effort has been made to make the data as accurate as possible it does not meet MetOffice standards. It is proved as a guide of local weather conditions. We accept no liability for any loss which may arise from use of the data.

Copyright © Carnkie Weather 2009 - 2019.